DLH477 CYVR-EDDM

Flight info

Callsign DLH477
Flight time 9h 22m
Altitude 37000
Route SEATN DCT PARQE/N0485F380 DCT YQU/N0483F370 J528 YSM/N0493F390 DCT 61N110W 65N100W 67N090W 6830N08000W 6930N07000W/M084F390 DCT ADSAM DCT 70N060W 70N050W 6930N04000W/M084F410 6830N03000W 67N020W 65N010W DCT GUNPA/N0487F410 DCT ATNAK DCT OMIMA DCT TIVUN DCT DODEN/N0458F330 DCT TABUM DCT BOMBI T104 HAREM/N0426F270 T104 ROKIL ROKIL1B
Aircraft A359/H-SADE2E3GHIJ1J2J3J4J5M1P2RWXYZ/LB1D1

Departure

Time 2026-05-05 08:11
Airport Vancouver International Airport (CYVR)

Arrival

Time 2026-05-05 17:33
Airport Munich Airport (EDDM)
Time Latitude Longitude Altitude Speed Heading
2026-05-05 07:45 49.19823 -123.17775 16 ft 0 kts 211°
2026-05-05 08:01 49.19827 -123.17771 17 ft 3 kts 211°
2026-05-05 08:01 49.19850 -123.17751 18 ft 4 kts 211°
2026-05-05 08:01 49.19872 -123.17731 17 ft 4 kts 211°
2026-05-05 08:02 49.19894 -123.17711 18 ft 4 kts 212°
2026-05-05 08:02 49.19914 -123.17688 19 ft 4 kts 234°
2026-05-05 08:02 49.19924 -123.17657 19 ft 4 kts 265°
2026-05-05 08:02 49.19923 -123.17619 18 ft 4 kts 283°
2026-05-05 08:03 49.19919 -123.17593 18 ft 1 kts 280°
2026-05-05 08:03 49.19918 -123.17589 18 ft 0 kts 280°
2026-05-05 08:06 49.19919 -123.17597 16 ft 3 kts 280°
2026-05-05 08:06 49.19927 -123.17664 16 ft 10 kts 280°
2026-05-05 08:07 49.19945 -123.17810 16 ft 17 kts 282°
2026-05-05 08:07 49.19985 -123.17938 16 ft 14 kts 283°
2026-05-05 08:07 49.20007 -123.18134 16 ft 23 kts 280°
2026-05-05 08:07 49.20042 -123.18424 16 ft 26 kts 279°
2026-05-05 08:08 49.20118 -123.18534 16 ft 13 kts 305°
2026-05-05 08:08 49.20143 -123.18672 16 ft 15 kts 281°
2026-05-05 08:08 49.20162 -123.18830 16 ft 16 kts 280°
2026-05-05 08:08 49.20180 -123.19001 16 ft 17 kts 279°
2026-05-05 08:09 49.20203 -123.19203 16 ft 22 kts 282°
2026-05-05 08:09 49.20232 -123.19450 15 ft 26 kts 279°
2026-05-05 08:09 49.20265 -123.19739 15 ft 29 kts 280°
2026-05-05 08:09 49.20313 -123.19999 16 ft 18 kts 326°
2026-05-05 08:10 49.20420 -123.19983 16 ft 15 kts 12°
2026-05-05 08:10 49.20489 -123.19901 15 ft 12 kts 76°
2026-05-05 08:10 49.20481 -123.19767 14 ft 19 kts 100°
2026-05-05 08:10 49.20421 -123.19228 14 ft 84 kts 99°
2026-05-05 08:11 49.20286 -123.18054 15 ft 139 kts 100°
2026-05-05 08:11 49.20106 -123.16461 392 ft 152 kts 99°
2026-05-05 08:11 49.19908 -123.14938 1155 ft 140 kts 103°
2026-05-05 08:11 49.19664 -123.13408 1420 ft 166 kts 104°
2026-05-05 08:12 49.19355 -123.11503 1486 ft 199 kts 104°
2026-05-05 08:12 49.19273 -123.09293 1697 ft 224 kts 80°
2026-05-05 08:12 49.20045 -123.07140 2060 ft 245 kts 44°
2026-05-05 08:12 49.21526 -123.05680 2290 ft 262 kts 23°
2026-05-05 08:13 49.23268 -123.04936 2611 ft 257 kts 13°
2026-05-05 08:13 49.25028 -123.04341 3177 ft 262 kts 12°
2026-05-05 08:13 49.26833 -123.03796 3872 ft 264 kts 11°
2026-05-05 08:13 49.28632 -123.03230 4621 ft 264 kts 12°
2026-05-05 08:14 49.30425 -123.02590 5338 ft 266 kts 13°
2026-05-05 08:14 49.32229 -123.01868 6054 ft 268 kts 15°
2026-05-05 08:14 49.34032 -123.01085 6752 ft 271 kts 16°
2026-05-05 08:14 49.35825 -123.00271 7451 ft 274 kts 16°
2026-05-05 08:15 49.37664 -122.99418 8201 ft 277 kts 17°
2026-05-05 08:15 49.39523 -122.98553 8959 ft 280 kts 17°
2026-05-05 08:15 49.41401 -122.97680 9721 ft 283 kts 17°
2026-05-05 08:15 49.43301 -122.96799 10353 ft 290 kts 17°
2026-05-05 08:16 49.45294 -122.95878 10706 ft 307 kts 16°
2026-05-05 08:16 49.47379 -122.94917 11024 ft 324 kts 16°
2026-05-05 08:16 49.49587 -122.93901 11371 ft 338 kts 16°
2026-05-05 08:16 49.51881 -122.92843 11928 ft 346 kts 16°
2026-05-05 08:17 49.54193 -122.91777 12617 ft 348 kts 16°
2026-05-05 08:17 49.56495 -122.90714 13335 ft 350 kts 15°
2026-05-05 08:17 49.58835 -122.89633 14004 ft 352 kts 15°
2026-05-05 08:17 49.61187 -122.88543 14612 ft 353 kts 15°
2026-05-05 08:18 49.63555 -122.87444 15212 ft 356 kts 15°
2026-05-05 08:18 49.65949 -122.86335 15832 ft 359 kts 15°
2026-05-05 08:18 49.68349 -122.85223 16461 ft 361 kts 15°
2026-05-05 08:18 49.70738 -122.84114 17120 ft 364 kts 15°
2026-05-05 08:19 49.73175 -122.82980 17720 ft 366 kts 15°
2026-05-05 08:19 49.75622 -122.81838 18388 ft 367 kts 15°
2026-05-05 08:19 49.78082 -122.80692 18842 ft 371 kts 15°
2026-05-05 08:19 49.80568 -122.79534 19371 ft 375 kts 15°
2026-05-05 08:20 49.83070 -122.78367 19958 ft 377 kts 15°
2026-05-05 08:20 49.85591 -122.77189 20524 ft 377 kts 15°
2026-05-05 08:20 49.88114 -122.76005 21005 ft 381 kts 15°
2026-05-05 08:20 49.90671 -122.74805 21501 ft 386 kts 15°
2026-05-05 08:21 49.93250 -122.73595 22125 ft 388 kts 15°
2026-05-05 08:21 49.95844 -122.72379 22647 ft 392 kts 15°
2026-05-05 08:21 49.98460 -122.71149 23213 ft 394 kts 15°
2026-05-05 08:21 50.01097 -122.69909 23713 ft 397 kts 15°
2026-05-05 08:22 50.03752 -122.68657 24158 ft 400 kts 15°
2026-05-05 08:22 50.06432 -122.67391 24616 ft 403 kts 15°
2026-05-05 08:22 50.09120 -122.66118 25082 ft 404 kts 15°
2026-05-05 08:22 50.11821 -122.64837 25510 ft 407 kts 15°
2026-05-05 08:23 50.14539 -122.63547 25933 ft 410 kts 15°
2026-05-05 08:23 50.17277 -122.62253 26377 ft 412 kts 14°
2026-05-05 08:23 50.20025 -122.60950 26812 ft 414 kts 14°
2026-05-05 08:23 50.22797 -122.59634 27286 ft 416 kts 14°
2026-05-05 08:24 50.25539 -122.58329 27706 ft 419 kts 14°
2026-05-05 08:24 50.28339 -122.56997 28134 ft 422 kts 14°
2026-05-05 08:24 50.31154 -122.55654 28564 ft 424 kts 14°
2026-05-05 08:24 50.33987 -122.54300 29005 ft 427 kts 14°
2026-05-05 08:25 50.36837 -122.52937 29409 ft 430 kts 14°
2026-05-05 08:25 50.39704 -122.51566 29807 ft 432 kts 14°
2026-05-05 08:25 50.42586 -122.50185 30159 ft 435 kts 14°
2026-05-05 08:25 50.45488 -122.48792 30482 ft 437 kts 14°
2026-05-05 08:26 50.48399 -122.47394 30769 ft 439 kts 14°
2026-05-05 08:26 50.51329 -122.45984 31116 ft 441 kts 14°
2026-05-05 08:26 50.54284 -122.44559 31434 ft 443 kts 14°
2026-05-05 08:26 50.57248 -122.43127 31744 ft 446 kts 14°
2026-05-05 08:27 50.60194 -122.41703 32027 ft 448 kts 14°
2026-05-05 08:27 50.63181 -122.40258 32312 ft 450 kts 14°
2026-05-05 08:27 50.66182 -122.38804 32572 ft 452 kts 14°
2026-05-05 08:27 50.69173 -122.37247 32754 ft 455 kts 18°
2026-05-05 08:28 50.72072 -122.35145 33025 ft 459 kts 24°
2026-05-05 08:28 50.74894 -122.32782 33353 ft 459 kts 25°
2026-05-05 08:28 50.77703 -122.30340 33720 ft 459 kts 25°
2026-05-05 08:28 50.80477 -122.27878 34075 ft 457 kts 25°
2026-05-05 08:29 50.83247 -122.25402 34351 ft 457 kts 25°
2026-05-05 08:29 50.86013 -122.22927 34632 ft 456 kts 25°
2026-05-05 08:29 50.88767 -122.20464 35007 ft 454 kts 25°
2026-05-05 08:30 50.94203 -122.15604 35674 ft 449 kts 25°
2026-05-05 08:30 50.96921 -122.13174 35966 ft 448 kts 25°
2026-05-05 08:30 50.99637 -122.10745 36257 ft 446 kts 24°
2026-05-05 08:30 51.02337 -122.08326 36534 ft 445 kts 24°
2026-05-05 08:31 51.05033 -122.05909 36795 ft 444 kts 24°
2026-05-05 08:31 51.07719 -122.03499 37085 ft 443 kts 24°
2026-05-05 08:31 51.10397 -122.01093 37384 ft 442 kts 24°
2026-05-05 08:31 51.13076 -121.98681 37651 ft 441 kts 24°
2026-05-05 08:32 51.15744 -121.96273 37930 ft 439 kts 24°
2026-05-05 08:32 51.18387 -121.93886 38189 ft 437 kts 24°
2026-05-05 08:32 51.21034 -121.91491 38433 ft 436 kts 24°
2026-05-05 08:32 51.23668 -121.89105 38662 ft 435 kts 24°
2026-05-05 08:33 51.26265 -121.86749 38831 ft 434 kts 24°
2026-05-05 08:33 51.28888 -121.84369 38951 ft 435 kts 24°
2026-05-05 08:33 51.31528 -121.81973 38992 ft 437 kts 24°
2026-05-05 08:34 51.36852 -121.77131 39023 ft 440 kts 24°
2026-05-05 08:34 51.42167 -121.72274 39020 ft 440 kts 24°
2026-05-05 08:35 51.47482 -121.67403 39019 ft 440 kts 24°
2026-05-05 08:35 51.52792 -121.62527 39019 ft 440 kts 24°
2026-05-05 08:36 51.58104 -121.57636 39014 ft 440 kts 24°
2026-05-05 08:36 51.63416 -121.52732 39016 ft 440 kts 24°
2026-05-05 08:37 51.68721 -121.47820 39017 ft 440 kts 24°
2026-05-05 08:37 51.74027 -121.42895 39020 ft 440 kts 24°
2026-05-05 08:38 51.79327 -121.37961 39019 ft 440 kts 24°
2026-05-05 08:38 51.84587 -121.33051 39023 ft 440 kts 24°
2026-05-05 08:39 51.89883 -121.28093 39026 ft 439 kts 24°
2026-05-05 08:39 51.95168 -121.23134 39033 ft 439 kts 24°
2026-05-05 08:40 52.00459 -121.18157 39033 ft 439 kts 24°
2026-05-05 08:40 52.04850 -121.14012 39037 ft 439 kts 24°
2026-05-05 08:41 52.10133 -121.09014 39041 ft 438 kts 24°
2026-05-05 08:41 52.15418 -121.04001 39038 ft 438 kts 24°
2026-05-05 08:42 52.20658 -120.99018 39050 ft 438 kts 24°
2026-05-05 08:42 52.25929 -120.93991 39045 ft 438 kts 24°
2026-05-05 08:43 52.31181 -120.88967 39041 ft 437 kts 24°
2026-05-05 08:43 52.36430 -120.83933 39039 ft 437 kts 24°
2026-05-05 08:44 52.41676 -120.78889 39051 ft 438 kts 24°
2026-05-05 08:44 52.46889 -120.73860 39049 ft 437 kts 24°
2026-05-05 08:45 52.52125 -120.68794 39048 ft 437 kts 24°
2026-05-05 08:45 52.57359 -120.63719 39047 ft 436 kts 24°
2026-05-05 08:46 52.62584 -120.58641 39028 ft 435 kts 24°
2026-05-05 08:46 52.67802 -120.53556 39054 ft 436 kts 24°
2026-05-05 08:47 52.73012 -120.48453 39046 ft 436 kts 24°
2026-05-05 08:47 52.78232 -120.43329 39048 ft 436 kts 24°
2026-05-05 08:48 52.83440 -120.38207 39047 ft 435 kts 24°
2026-05-05 08:48 52.88649 -120.33069 39065 ft 436 kts 24°
2026-05-05 08:49 52.93851 -120.27920 39065 ft 435 kts 24°
2026-05-05 08:49 52.99043 -120.22776 39064 ft 434 kts 23°
2026-05-05 08:50 53.04232 -120.17614 39076 ft 436 kts 24°
2026-05-05 08:50 53.09439 -120.12427 39087 ft 442 kts 24°
2026-05-05 08:51 53.14720 -120.07148 39085 ft 443 kts 24°
2026-05-05 08:51 53.19990 -120.01865 39105 ft 443 kts 24°
2026-05-05 08:52 53.25284 -119.96538 39073 ft 442 kts 24°
2026-05-05 08:52 53.30527 -119.91245 39125 ft 441 kts 24°
2026-05-05 08:53 53.35804 -119.85897 39117 ft 445 kts 24°
2026-05-05 08:53 53.41102 -119.80513 39115 ft 445 kts 24°
2026-05-05 08:54 53.46387 -119.75120 39131 ft 444 kts 24°
2026-05-05 08:54 53.51645 -119.69756 39145 ft 445 kts 24°
2026-05-05 08:55 53.56924 -119.64356 39149 ft 444 kts 24°
2026-05-05 08:55 53.62199 -119.58939 39149 ft 443 kts 24°
2026-05-05 08:56 53.67473 -119.53504 39152 ft 444 kts 24°
2026-05-05 08:56 53.72945 -119.48937 39164 ft 432 kts 12°
2026-05-05 08:57 53.78729 -119.46601 39177 ft 426 kts
2026-05-05 08:57 53.84523 -119.44808 39190 ft 426 kts
2026-05-05 08:58 53.90355 -119.43072 39193 ft 425 kts
2026-05-05 08:58 53.96180 -119.41311 39193 ft 424 kts
2026-05-05 08:59 54.01990 -119.39534 39200 ft 424 kts
2026-05-05 08:59 54.07798 -119.37745 39210 ft 424 kts
2026-05-05 09:00 54.13609 -119.35950 39205 ft 424 kts
2026-05-05 09:00 54.19377 -119.34160 39216 ft 424 kts
2026-05-05 09:01 54.25179 -119.32357 39220 ft 424 kts
2026-05-05 09:01 54.30978 -119.30550 39224 ft 423 kts
2026-05-05 09:02 54.36782 -119.28737 39224 ft 424 kts
2026-05-05 09:02 54.42584 -119.26917 39223 ft 424 kts
2026-05-05 09:03 54.48388 -119.25091 39229 ft 424 kts
2026-05-05 09:03 54.54183 -119.23264 39231 ft 423 kts
2026-05-05 09:04 54.59938 -119.21445 39234 ft 423 kts
2026-05-05 09:04 54.65735 -119.19606 39233 ft 423 kts
2026-05-05 09:05 54.71521 -119.17766 39230 ft 423 kts
2026-05-05 09:05 54.77302 -119.15921 39236 ft 422 kts
2026-05-05 09:06 54.83078 -119.14074 39237 ft 422 kts
2026-05-05 09:06 54.88838 -119.12226 39226 ft 422 kts
2026-05-05 09:07 54.94585 -119.10378 39219 ft 422 kts
2026-05-05 09:07 55.00357 -119.08515 39209 ft 421 kts
2026-05-05 09:08 55.06125 -119.06649 39201 ft 421 kts
2026-05-05 09:08 55.11890 -119.04770 39195 ft 422 kts
2026-05-05 09:09 55.17532 -119.01524 39193 ft 435 kts 18°
2026-05-05 09:09 55.22671 -118.95623 39193 ft 448 kts 29°
2026-05-05 09:10 55.27543 -118.88751 39195 ft 450 kts 30°
2026-05-05 09:10 55.32371 -118.81742 39206 ft 450 kts 30°
2026-05-05 09:11 55.37206 -118.74743 39208 ft 450 kts 30°
2026-05-05 09:11 55.42008 -118.67816 39224 ft 449 kts 30°
2026-05-05 09:12 55.46836 -118.60842 39224 ft 449 kts 30°
2026-05-05 09:12 55.51656 -118.53859 39244 ft 448 kts 30°
2026-05-05 09:13 55.56469 -118.46860 39247 ft 448 kts 30°
2026-05-05 09:13 55.61268 -118.39859 39245 ft 447 kts 30°
2026-05-05 09:14 55.66062 -118.32840 39242 ft 447 kts 30°
2026-05-05 09:14 55.70827 -118.25844 39249 ft 446 kts 30°
2026-05-05 09:15 55.75606 -118.18801 39248 ft 446 kts 30°
2026-05-05 09:15 55.80383 -118.11739 39247 ft 446 kts 31°
2026-05-05 09:16 55.85141 -118.04681 39257 ft 445 kts 31°
2026-05-05 09:16 55.89896 -117.97605 39255 ft 445 kts 31°
2026-05-05 09:17 55.94644 -117.90517 39254 ft 445 kts 31°
2026-05-05 09:17 55.99395 -117.83402 39242 ft 446 kts 31°
2026-05-05 09:18 56.04149 -117.76257 39247 ft 447 kts 31°
2026-05-05 09:18 56.08877 -117.69122 39238 ft 447 kts 31°
2026-05-05 09:19 56.13632 -117.61926 39231 ft 448 kts 31°
2026-05-05 09:19 56.18397 -117.54695 39223 ft 448 kts 31°
2026-05-05 09:20 56.23306 -117.47908 39222 ft 443 kts 27°
2026-05-05 09:20 56.28326 -117.41468 39223 ft 443 kts 27°
2026-05-05 09:21 56.33363 -117.35054 39232 ft 444 kts 27°
2026-05-05 09:21 56.38402 -117.28617 39244 ft 444 kts 27°
2026-05-05 09:22 56.43440 -117.22148 39258 ft 444 kts 27°
2026-05-05 09:22 56.48478 -117.15654 39273 ft 445 kts 27°
2026-05-05 09:23 56.53481 -117.09182 39289 ft 445 kts 27°
2026-05-05 09:23 56.58516 -117.02646 39297 ft 445 kts 27°
2026-05-05 09:24 56.63545 -116.96096 39298 ft 445 kts 27°
2026-05-05 09:24 56.68579 -116.89523 39298 ft 445 kts 27°
2026-05-05 09:25 56.73610 -116.82930 39297 ft 445 kts 27°
2026-05-05 09:25 56.78617 -116.76346 39301 ft 446 kts 27°
2026-05-05 09:26 56.83662 -116.69690 39304 ft 446 kts 27°
2026-05-05 09:26 56.88668 -116.63062 39305 ft 447 kts 27°
2026-05-05 09:27 56.93707 -116.56367 39301 ft 447 kts 27°
2026-05-05 09:27 56.98744 -116.49651 39302 ft 447 kts 27°
2026-05-05 09:28 57.03771 -116.42925 39310 ft 447 kts 27°
2026-05-05 09:28 57.08805 -116.36169 39313 ft 448 kts 28°
2026-05-05 09:29 57.13832 -116.29400 39306 ft 448 kts 28°
2026-05-05 09:29 57.18872 -116.22590 39313 ft 449 kts 28°
2026-05-05 09:30 57.23875 -116.15805 39307 ft 449 kts 28°
2026-05-05 09:30 57.28905 -116.08960 39305 ft 450 kts 28°
2026-05-05 09:31 57.33950 -116.02070 39306 ft 450 kts 28°
2026-05-05 09:31 57.38996 -115.95155 39301 ft 450 kts 28°
2026-05-05 09:32 57.44019 -115.88248 39302 ft 450 kts 28°
2026-05-05 09:32 57.48215 -115.82458 39301 ft 450 kts 28°
2026-05-05 09:33 57.53259 -115.75478 39298 ft 450 kts 28°
2026-05-05 09:33 57.58258 -115.68535 39304 ft 450 kts 29°
2026-05-05 09:34 57.63290 -115.61522 39296 ft 450 kts 29°
2026-05-05 09:34 57.68279 -115.54542 39298 ft 450 kts 29°
2026-05-05 09:35 57.73301 -115.47494 39300 ft 451 kts 29°
2026-05-05 09:35 57.80800 -115.36924 39298 ft 451 kts 30°
2026-05-05 09:36 57.85826 -115.29808 39304 ft 451 kts 30°
2026-05-05 09:36 57.90836 -115.22684 39298 ft 451 kts 30°
2026-05-05 09:37 57.95841 -115.15544 39301 ft 451 kts 30°
2026-05-05 09:37 58.00810 -115.08428 39303 ft 452 kts 30°
2026-05-05 09:38 58.05813 -115.01240 39305 ft 452 kts 30°
2026-05-05 09:38 58.10819 -114.94024 39302 ft 452 kts 30°
2026-05-05 09:39 58.15820 -114.86788 39305 ft 453 kts 30°
2026-05-05 09:39 58.20824 -114.79520 39305 ft 453 kts 30°
2026-05-05 09:40 58.25831 -114.72222 39308 ft 453 kts 31°
2026-05-05 09:40 58.30831 -114.64905 39308 ft 454 kts 31°
2026-05-05 09:41 58.35840 -114.57549 39307 ft 455 kts 31°
2026-05-05 09:41 58.40856 -114.50159 39310 ft 456 kts 31°
2026-05-05 09:42 58.45844 -114.42783 39312 ft 456 kts 31°
2026-05-05 09:42 58.50870 -114.35323 39311 ft 457 kts 31°
2026-05-05 09:43 58.55896 -114.27832 39313 ft 458 kts 31°
2026-05-05 09:43 58.60921 -114.20314 39310 ft 458 kts 32°
2026-05-05 09:44 58.65947 -114.12766 39315 ft 459 kts 32°
2026-05-05 09:44 58.70968 -114.05196 39316 ft 459 kts 32°
2026-05-05 09:45 58.75963 -113.97639 39322 ft 459 kts 32°
2026-05-05 09:45 58.80995 -113.89998 39318 ft 460 kts 32°
2026-05-05 09:46 58.86024 -113.82332 39326 ft 460 kts 32°
2026-05-05 09:46 58.91046 -113.74648 39320 ft 461 kts 32°
2026-05-05 09:47 58.96073 -113.66925 39316 ft 461 kts 32°
2026-05-05 09:47 59.01100 -113.59173 39315 ft 462 kts 32°
2026-05-05 09:48 59.06131 -113.51387 39322 ft 463 kts 33°
2026-05-05 09:48 59.11170 -113.43557 39318 ft 463 kts 33°
2026-05-05 09:49 59.16163 -113.35768 39323 ft 464 kts 33°
2026-05-05 09:49 59.21201 -113.27880 39322 ft 464 kts 33°
2026-05-05 09:50 59.26238 -113.19962 39326 ft 465 kts 33°
2026-05-05 09:50 59.31279 -113.12006 39327 ft 466 kts 33°
2026-05-05 09:51 59.36326 -113.04010 39328 ft 467 kts 33°
2026-05-05 09:51 59.41371 -112.95983 39329 ft 467 kts 33°
2026-05-05 09:52 59.46433 -112.87899 39329 ft 468 kts 33°
2026-05-05 09:52 59.51489 -112.79791 39329 ft 469 kts 34°
2026-05-05 09:53 59.56515 -112.71701 39329 ft 469 kts 34°
2026-05-05 09:53 59.61591 -112.63498 39335 ft 470 kts 34°
2026-05-05 09:54 59.66654 -112.55281 39339 ft 471 kts 34°
2026-05-05 09:54 59.71691 -112.47075 39333 ft 471 kts 34°
2026-05-05 09:55 59.76785 -112.38741 39331 ft 472 kts 34°
2026-05-05 09:55 59.81815 -112.30479 39322 ft 473 kts 34°
2026-05-05 09:56 59.86878 -112.22129 39312 ft 473 kts 35°
2026-05-05 09:56 59.91943 -112.13740 39302 ft 474 kts 35°
2026-05-05 09:57 59.97011 -112.05312 39296 ft 474 kts 35°
2026-05-05 09:57 60.02078 -111.96852 39292 ft 475 kts 35°
2026-05-05 09:58 60.06982 -111.87936 39297 ft 478 kts 39°
2026-05-05 09:58 60.11701 -111.78518 39301 ft 479 kts 40°
2026-05-05 09:59 60.16439 -111.69096 39311 ft 479 kts 39°
2026-05-05 09:59 60.21212 -111.59730 39323 ft 479 kts 39°
2026-05-05 10:00 60.25996 -111.50366 39336 ft 480 kts 39°
2026-05-05 10:00 60.30747 -111.41030 39342 ft 480 kts 39°
2026-05-05 10:01 60.35525 -111.31592 39340 ft 481 kts 40°
2026-05-05 10:01 60.40305 -111.22108 39341 ft 481 kts 40°
2026-05-05 10:02 60.45086 -111.12578 39343 ft 482 kts 40°
2026-05-05 10:02 60.49860 -111.03021 39346 ft 482 kts 40°
2026-05-05 10:03 60.54630 -110.93430 39348 ft 483 kts 40°
2026-05-05 10:03 60.59364 -110.83869 39351 ft 483 kts 40°
2026-05-05 10:04 60.64124 -110.74213 39354 ft 483 kts 40°
2026-05-05 10:04 60.68888 -110.64508 39353 ft 484 kts 41°
2026-05-05 10:05 60.73647 -110.54769 39356 ft 484 kts 41°
2026-05-05 10:05 60.78394 -110.45012 39356 ft 485 kts 41°
2026-05-05 10:06 60.83146 -110.35202 39362 ft 485 kts 41°
2026-05-05 10:06 60.87897 -110.25348 39372 ft 486 kts 41°
2026-05-05 10:07 60.92644 -110.15456 39360 ft 486 kts 41°
2026-05-05 10:07 60.97393 -110.05517 39366 ft 486 kts 41°
2026-05-05 10:08 61.02125 -109.95623 39368 ft 486 kts 41°
2026-05-05 10:08 61.06975 -109.85848 39370 ft 486 kts 40°
2026-05-05 10:09 61.11807 -109.76155 39370 ft 486 kts 40°
2026-05-05 10:09 61.16655 -109.66334 39371 ft 487 kts 41°
2026-05-05 10:10 61.21457 -109.56521 39378 ft 487 kts 41°
2026-05-05 10:10 61.26282 -109.46607 39380 ft 487 kts 41°
2026-05-05 10:11 61.31099 -109.36667 39377 ft 487 kts 41°
2026-05-05 10:11 61.35911 -109.26691 39381 ft 488 kts 41°
2026-05-05 10:12 61.40690 -109.16740 39382 ft 488 kts 41°
2026-05-05 10:12 61.45500 -109.06681 39385 ft 488 kts 41°
2026-05-05 10:13 61.50270 -108.96658 39386 ft 488 kts 42°
2026-05-05 10:13 61.55073 -108.86520 39392 ft 489 kts 42°
2026-05-05 10:14 61.59839 -108.76410 39394 ft 489 kts 42°
2026-05-05 10:14 61.64625 -108.66212 39397 ft 489 kts 42°
2026-05-05 10:15 61.69400 -108.55989 39400 ft 490 kts 42°
2026-05-05 10:15 61.74156 -108.45760 39401 ft 490 kts 43°
2026-05-05 10:16 61.78929 -108.35444 39405 ft 490 kts 43°
2026-05-05 10:16 61.83665 -108.25159 39404 ft 490 kts 43°
2026-05-05 10:17 61.88430 -108.14763 39405 ft 491 kts 43°
2026-05-05 10:17 61.93179 -108.04353 39410 ft 491 kts 43°
2026-05-05 10:18 61.97925 -107.93901 39410 ft 491 kts 43°
2026-05-05 10:18 62.02662 -107.83415 39411 ft 491 kts 43°
2026-05-05 10:19 62.06599 -107.74665 39420 ft 492 kts 43°
2026-05-05 10:19 62.11326 -107.64111 39406 ft 492 kts 43°
2026-05-05 10:20 62.16052 -107.53512 39415 ft 492 kts 44°
2026-05-05 10:20 62.20774 -107.42865 39419 ft 492 kts 44°
2026-05-05 10:21 62.25484 -107.32196 39415 ft 492 kts 44°
2026-05-05 10:21 62.30188 -107.21486 39413 ft 493 kts 44°
2026-05-05 10:22 62.34854 -107.10813 39412 ft 493 kts 44°
2026-05-05 10:22 62.39544 -107.00033 39412 ft 493 kts 44°
2026-05-05 10:23 62.44232 -106.89202 39414 ft 493 kts 44°
2026-05-05 10:23 62.48906 -106.78353 39409 ft 493 kts 45°
2026-05-05 10:24 62.53580 -106.67447 39409 ft 494 kts 45°
2026-05-05 10:24 62.58240 -106.56522 39404 ft 494 kts 45°
2026-05-05 10:25 62.62893 -106.45558 39406 ft 494 kts 45°
2026-05-05 10:25 62.67545 -106.34542 39407 ft 494 kts 45°
2026-05-05 10:26 62.72159 -106.23562 39407 ft 494 kts 45°
2026-05-05 10:26 62.76791 -106.12483 39405 ft 494 kts 45°
2026-05-05 10:27 62.81418 -106.01361 39405 ft 494 kts 45°
2026-05-05 10:27 62.86037 -105.90202 39406 ft 495 kts 45°
2026-05-05 10:28 62.90645 -105.79012 39405 ft 495 kts 46°
2026-05-05 10:28 62.95251 -105.67773 39401 ft 495 kts 46°
2026-05-05 10:29 62.99851 -105.56490 39401 ft 495 kts 46°
2026-05-05 10:29 63.04437 -105.45181 39399 ft 495 kts 46°
2026-05-05 10:30 63.09024 -105.33813 39396 ft 495 kts 46°
2026-05-05 10:30 63.13598 -105.22418 39397 ft 496 kts 46°
2026-05-05 10:31 63.18186 -105.10932 39400 ft 498 kts 46°
2026-05-05 10:31 63.22742 -104.99466 39403 ft 499 kts 47°
2026-05-05 10:32 63.27319 -104.87884 39398 ft 499 kts 47°
2026-05-05 10:32 63.31892 -104.76254 39399 ft 499 kts 47°
2026-05-05 10:33 63.36449 -104.64602 39400 ft 499 kts 47°
2026-05-05 10:33 63.41005 -104.52891 39394 ft 499 kts 47°
2026-05-05 10:34 63.45550 -104.41149 39396 ft 499 kts 47°
2026-05-05 10:34 63.50086 -104.29366 39392 ft 499 kts 47°
2026-05-05 10:35 63.54613 -104.17542 39394 ft 500 kts 47°
2026-05-05 10:35 63.59132 -104.05680 39393 ft 500 kts 48°
2026-05-05 10:36 63.63639 -103.93782 39396 ft 500 kts 48°
2026-05-05 10:36 63.68141 -103.81835 39392 ft 500 kts 48°
2026-05-05 10:37 63.72603 -103.69932 39391 ft 500 kts 48°
2026-05-05 10:37 63.77085 -103.57909 39391 ft 500 kts 48°
2026-05-05 10:38 63.81557 -103.45848 39390 ft 500 kts 49°
2026-05-05 10:38 63.86023 -103.33739 39389 ft 501 kts 49°
2026-05-05 10:39 63.90482 -103.21581 39391 ft 501 kts 49°
2026-05-05 10:39 63.94929 -103.09390 39388 ft 501 kts 49°
2026-05-05 10:40 63.99366 -102.97161 39386 ft 501 kts 49°
2026-05-05 10:40 64.03798 -102.84876 39383 ft 501 kts 49°
2026-05-05 10:41 64.08218 -102.72558 39382 ft 501 kts 49°
2026-05-05 10:41 64.12633 -102.60184 39378 ft 502 kts 49°
2026-05-05 10:42 64.19232 -102.41563 39376 ft 502 kts 50°
2026-05-05 10:43 64.23603 -102.29141 39374 ft 502 kts 50°
2026-05-05 10:43 64.28000 -102.16577 39374 ft 502 kts 50°
2026-05-05 10:44 64.32377 -102.03996 39373 ft 503 kts 50°
2026-05-05 10:44 64.36716 -101.91457 39358 ft 503 kts 50°
2026-05-05 10:45 64.41084 -101.78763 39371 ft 503 kts 50°
2026-05-05 10:45 64.45433 -101.66050 39371 ft 504 kts 50°
2026-05-05 10:46 64.49775 -101.53284 39355 ft 504 kts 51°
2026-05-05 10:46 64.54080 -101.40555 39350 ft 504 kts 51°
2026-05-05 10:47 64.58413 -101.27672 39348 ft 505 kts 51°
2026-05-05 10:47 64.62729 -101.14762 39347 ft 505 kts 51°
2026-05-05 10:48 64.67020 -101.01856 39346 ft 505 kts 51°
2026-05-05 10:48 64.71315 -100.88859 39347 ft 505 kts 51°
2026-05-05 10:49 64.75600 -100.75816 39342 ft 504 kts 51°
2026-05-05 10:49 64.79848 -100.62810 39341 ft 504 kts 51°
2026-05-05 10:50 64.84115 -100.49673 39338 ft 504 kts 51°
2026-05-05 10:50 64.88330 -100.36617 39337 ft 504 kts 51°
2026-05-05 10:51 64.92561 -100.23438 39334 ft 504 kts 52°
2026-05-05 10:51 64.96781 -100.10211 39327 ft 504 kts 52°
2026-05-05 10:52 65.00827 -99.96597 39327 ft 505 kts 57°
2026-05-05 10:52 65.04456 -99.82355 39324 ft 505 kts 58°
2026-05-05 10:53 65.07994 -99.68064 39320 ft 505 kts 58°
2026-05-05 10:53 65.11539 -99.53625 39318 ft 506 kts 58°
2026-05-05 10:54 65.15079 -99.39145 39316 ft 506 kts 58°
2026-05-05 10:54 65.18586 -99.24730 39313 ft 506 kts 59°
2026-05-05 10:55 65.22110 -99.10147 39307 ft 506 kts 59°
2026-05-05 10:55 65.25604 -98.95585 39306 ft 506 kts 59°
2026-05-05 10:56 65.29085 -98.80988 39303 ft 506 kts 59°
2026-05-05 10:56 65.32558 -98.66323 39300 ft 506 kts 59°
2026-05-05 10:57 65.36017 -98.51617 39298 ft 506 kts 59°
2026-05-05 10:57 65.39443 -98.36954 39296 ft 507 kts 59°
2026-05-05 10:58 65.42875 -98.22161 39290 ft 507 kts 59°
2026-05-05 10:58 65.46296 -98.07320 39293 ft 507 kts 60°
2026-05-05 10:59 65.49702 -97.92439 39284 ft 507 kts 60°
2026-05-05 10:59 65.53094 -97.77519 39284 ft 508 kts 60°
2026-05-05 11:00 65.56473 -97.62543 39278 ft 508 kts 60°
2026-05-05 11:00 65.59815 -97.47636 39271 ft 508 kts 60°
2026-05-05 11:01 65.63170 -97.32575 39271 ft 508 kts 60°
2026-05-05 11:01 65.66507 -97.17481 39266 ft 508 kts 61°
2026-05-05 11:02 65.69831 -97.02332 39264 ft 508 kts 61°
2026-05-05 11:02 65.73141 -96.87144 39264 ft 508 kts 61°
2026-05-05 11:03 65.76431 -96.71937 39265 ft 508 kts 61°
2026-05-05 11:03 65.79706 -96.56699 39254 ft 508 kts 62°
2026-05-05 11:04 65.82971 -96.41394 39253 ft 508 kts 62°
2026-05-05 11:04 65.86217 -96.26065 39251 ft 508 kts 62°
2026-05-05 11:05 65.89426 -96.10800 39245 ft 508 kts 62°
2026-05-05 11:05 65.92646 -95.95375 39249 ft 508 kts 62°
2026-05-05 11:06 65.95849 -95.79921 39246 ft 508 kts 62°
2026-05-05 11:06 65.99033 -95.64440 39245 ft 508 kts 62°
2026-05-05 11:07 66.02204 -95.48913 39237 ft 509 kts 63°
2026-05-05 11:07 66.04829 -95.35969 39233 ft 509 kts 63°
2026-05-05 11:08 66.07978 -95.20337 39235 ft 509 kts 63°
2026-05-05 11:08 66.11108 -95.04675 39226 ft 509 kts 63°
2026-05-05 11:09 66.14225 -94.88963 39231 ft 509 kts 63°
2026-05-05 11:09 66.17325 -94.73217 39223 ft 510 kts 63°
2026-05-05 11:10 66.20412 -94.57417 39225 ft 510 kts 64°
2026-05-05 11:10 66.23485 -94.41572 39229 ft 510 kts 64°
2026-05-05 11:11 66.26542 -94.25685 39220 ft 510 kts 64°
2026-05-05 11:11 66.29581 -94.09767 39223 ft 510 kts 64°
2026-05-05 11:12 66.32606 -93.93799 39226 ft 510 kts 64°
2026-05-05 11:12 66.35597 -93.77883 39227 ft 510 kts 64°
2026-05-05 11:13 66.38588 -93.61844 39226 ft 510 kts 65°
2026-05-05 11:13 66.41567 -93.45746 39228 ft 511 kts 65°
2026-05-05 11:14 66.44531 -93.29598 39226 ft 511 kts 65°
2026-05-05 11:14 66.47476 -93.13425 39219 ft 511 kts 65°
2026-05-05 11:15 66.50403 -92.97220 39225 ft 511 kts 65°
2026-05-05 11:15 66.53315 -92.80970 39227 ft 511 kts 65°
2026-05-05 11:16 66.56212 -92.64665 39224 ft 511 kts 66°
2026-05-05 11:16 66.59073 -92.48433 39227 ft 511 kts 66°
2026-05-05 11:17 66.61938 -92.32049 39224 ft 511 kts 66°
2026-05-05 11:17 66.64781 -92.15649 39219 ft 511 kts 66°
2026-05-05 11:18 66.67613 -91.99182 39211 ft 511 kts 66°
2026-05-05 11:18 66.70423 -91.82698 39211 ft 511 kts 67°
2026-05-05 11:19 66.73213 -91.66198 39207 ft 511 kts 67°
2026-05-05 11:19 66.75982 -91.49680 39212 ft 510 kts 67°
2026-05-05 11:20 66.78736 -91.33111 39212 ft 510 kts 67°
2026-05-05 11:20 66.81477 -91.16484 39213 ft 510 kts 68°
2026-05-05 11:21 66.84180 -90.99941 39206 ft 510 kts 68°
2026-05-05 11:21 66.86882 -90.83259 39205 ft 510 kts 68°
2026-05-05 11:22 66.89565 -90.66550 39212 ft 510 kts 68°
2026-05-05 11:22 66.92236 -90.49771 39217 ft 510 kts 68°
2026-05-05 11:23 66.94885 -90.32982 39220 ft 510 kts 68°
2026-05-05 11:23 66.97519 -90.16137 39219 ft 511 kts 69°
2026-05-05 11:24 67.00136 -89.99256 39206 ft 511 kts 69°
2026-05-05 11:24 67.03045 -89.82806 39204 ft 511 kts 64°
2026-05-05 11:25 67.06275 -89.66570 39203 ft 511 kts 63°
2026-05-05 11:25 67.09455 -89.50244 39200 ft 512 kts 64°
2026-05-05 11:26 67.12551 -89.33815 39202 ft 511 kts 65°
2026-05-05 11:26 67.15614 -89.17270 39198 ft 512 kts 65°
2026-05-05 11:27 67.18657 -89.00682 39194 ft 512 kts 65°
2026-05-05 11:27 67.21680 -88.84082 39195 ft 512 kts 66°
2026-05-05 11:28 67.24698 -88.67389 39198 ft 512 kts 66°
2026-05-05 11:28 67.27681 -88.50762 39198 ft 513 kts 66°
2026-05-05 11:29 67.30669 -88.33965 39206 ft 513 kts 66°
2026-05-05 11:29 67.33638 -88.17139 39203 ft 514 kts 66°
2026-05-05 11:30 67.36589 -88.00262 39200 ft 514 kts 67°
2026-05-05 11:30 67.39528 -87.83313 39200 ft 514 kts 67°
2026-05-05 11:31 67.42446 -87.66336 39197 ft 514 kts 67°
2026-05-05 11:31 67.45349 -87.49307 39193 ft 515 kts 67°
2026-05-05 11:32 67.48239 -87.32209 39191 ft 515 kts 67°
2026-05-05 11:32 67.51112 -87.15068 39189 ft 516 kts 68°
2026-05-05 11:33 67.53971 -86.97854 39187 ft 516 kts 68°
2026-05-05 11:33 67.56795 -86.80699 39189 ft 517 kts 68°
2026-05-05 11:34 67.59620 -86.63387 39186 ft 516 kts 68°
2026-05-05 11:34 67.62426 -86.46042 39183 ft 516 kts 68°
2026-05-05 11:35 67.65211 -86.28666 39186 ft 516 kts 69°
2026-05-05 11:35 67.67978 -86.11242 39190 ft 516 kts 69°
2026-05-05 11:36 67.70727 -85.93775 39187 ft 516 kts 69°
2026-05-05 11:36 67.73454 -85.76294 39191 ft 515 kts 69°
2026-05-05 11:37 67.76162 -85.58763 39194 ft 516 kts 69°
2026-05-05 11:37 67.78852 -85.41197 39199 ft 516 kts 70°
2026-05-05 11:38 67.81507 -85.23690 39204 ft 516 kts 70°
2026-05-05 11:38 67.84160 -85.06028 39206 ft 516 kts 70°
2026-05-05 11:39 67.86797 -84.88308 39210 ft 517 kts 70°
2026-05-05 11:39 67.89417 -84.70539 39211 ft 517 kts 70°
2026-05-05 11:40 67.92017 -84.52736 39216 ft 517 kts 70°
2026-05-05 11:40 67.94598 -84.34885 39218 ft 518 kts 70°
2026-05-05 11:41 67.97165 -84.16960 39221 ft 518 kts 71°
2026-05-05 11:41 67.99716 -83.98974 39226 ft 519 kts 71°
2026-05-05 11:42 68.02235 -83.81032 39224 ft 519 kts 71°
2026-05-05 11:42 68.04751 -83.62931 39224 ft 519 kts 71°
2026-05-05 11:43 68.07248 -83.44789 39221 ft 520 kts 71°
2026-05-05 11:43 68.09726 -83.26590 39220 ft 520 kts 72°
2026-05-05 11:44 68.12181 -83.08386 39219 ft 520 kts 72°
2026-05-05 11:44 68.14615 -82.90143 39224 ft 520 kts 72°
2026-05-05 11:45 68.17036 -82.71813 39225 ft 520 kts 72°
2026-05-05 11:45 68.19432 -82.53475 39225 ft 520 kts 72°
2026-05-05 11:46 68.21796 -82.35195 39224 ft 520 kts 73°
2026-05-05 11:46 68.24153 -82.16774 39220 ft 520 kts 73°
2026-05-05 11:47 68.26490 -81.98301 39222 ft 520 kts 73°
2026-05-05 11:47 68.28808 -81.79791 39224 ft 520 kts 73°
2026-05-05 11:48 68.32249 -81.51928 39223 ft 521 kts 73°
2026-05-05 11:48 68.34516 -81.33313 39224 ft 521 kts 74°
2026-05-05 11:49 68.36761 -81.14671 39227 ft 521 kts 74°
2026-05-05 11:49 68.38987 -80.95980 39228 ft 521 kts 74°
2026-05-05 11:50 68.41190 -80.77266 39233 ft 521 kts 75°
2026-05-05 11:50 68.43374 -80.58507 39238 ft 521 kts 75°
2026-05-05 11:51 68.45523 -80.39828 39240 ft 521 kts 75°
2026-05-05 11:51 68.47666 -80.20978 39241 ft 521 kts 75°
2026-05-05 11:52 68.49788 -80.02103 39247 ft 521 kts 75°
2026-05-05 11:52 68.52072 -79.83325 39242 ft 522 kts 72°
2026-05-05 11:53 68.54635 -79.64747 39241 ft 523 kts 72°
2026-05-05 11:53 68.57158 -79.46217 39244 ft 523 kts 72°
2026-05-05 11:54 68.59621 -79.27504 39248 ft 523 kts 73°
2026-05-05 11:54 68.62039 -79.08733 39247 ft 523 kts 73°
2026-05-05 11:55 68.64439 -78.89875 39251 ft 523 kts 73°
2026-05-05 11:55 68.66415 -78.74208 39251 ft 523 kts 73°
2026-05-05 11:56 68.68776 -78.55309 39254 ft 523 kts 73°
2026-05-05 11:56 68.71113 -78.36395 39256 ft 523 kts 74°
2026-05-05 11:57 68.73433 -78.17418 39256 ft 523 kts 74°
2026-05-05 11:57 68.75733 -77.98385 39255 ft 523 kts 74°
2026-05-05 11:58 68.78010 -77.79319 39261 ft 523 kts 75°
2026-05-05 11:58 68.80254 -77.60321 39260 ft 523 kts 75°
2026-05-05 11:59 68.82489 -77.41178 39261 ft 523 kts 75°
2026-05-05 11:59 68.84705 -77.21971 39263 ft 524 kts 75°
2026-05-05 12:00 68.86897 -77.02741 39263 ft 524 kts 75°
2026-05-05 12:00 68.89071 -76.83445 39264 ft 524 kts 76°
2026-05-05 12:01 68.91224 -76.64112 39266 ft 524 kts 76°
2026-05-05 12:01 68.93354 -76.44738 39268 ft 524 kts 76°
2026-05-05 12:02 68.95463 -76.25321 39268 ft 524 kts 76°
2026-05-05 12:02 68.97552 -76.05855 39264 ft 525 kts 76°
2026-05-05 12:03 68.99616 -75.86371 39271 ft 525 kts 76°
2026-05-05 12:03 69.01661 -75.66819 39270 ft 525 kts 77°
2026-05-05 12:04 69.03682 -75.47246 39270 ft 525 kts 77°
2026-05-05 12:04 69.05684 -75.27613 39273 ft 525 kts 77°
2026-05-05 12:05 69.07651 -75.08063 39273 ft 526 kts 77°
2026-05-05 12:05 69.09608 -74.88348 39277 ft 526 kts 77°
2026-05-05 12:06 69.11543 -74.68597 39281 ft 526 kts 78°
2026-05-05 12:06 69.13456 -74.48807 39277 ft 526 kts 78°
2026-05-05 12:07 69.15345 -74.28988 39283 ft 526 kts 78°
2026-05-05 12:07 69.17213 -74.09117 39283 ft 526 kts 78°
2026-05-05 12:08 69.19057 -73.89233 39282 ft 526 kts 78°
2026-05-05 12:08 69.20882 -73.69266 39285 ft 526 kts 79°
2026-05-05 12:09 69.22681 -73.49303 39288 ft 526 kts 79°
2026-05-05 12:09 69.24457 -73.29293 39290 ft 527 kts 79°
2026-05-05 12:10 69.26212 -73.09223 39286 ft 527 kts 79°
2026-05-05 12:10 69.27944 -72.89124 39291 ft 525 kts 79°
2026-05-05 12:11 69.29629 -72.69312 39289 ft 515 kts 80°
2026-05-05 12:11 69.31262 -72.49777 39294 ft 513 kts 80°
2026-05-05 12:12 69.32890 -72.29984 39297 ft 513 kts 80°
2026-05-05 12:12 69.34476 -72.10414 39300 ft 513 kts 80°
2026-05-05 12:13 69.36051 -71.90690 39302 ft 513 kts 81°
2026-05-05 12:13 69.37608 -71.70896 39306 ft 514 kts 81°
2026-05-05 12:14 69.39141 -71.51084 39305 ft 514 kts 81°
2026-05-05 12:14 69.40650 -71.31264 39309 ft 514 kts 81°
2026-05-05 12:15 69.42185 -71.11531 39305 ft 508 kts 80°
2026-05-05 12:15 69.43663 -70.91800 39309 ft 509 kts 81°
2026-05-05 12:16 69.45099 -70.72200 39316 ft 512 kts 82°
2026-05-05 12:16 69.46460 -70.52164 39316 ft 515 kts 82°
2026-05-05 12:17 69.47834 -70.32046 39461 ft 517 kts 82°
2026-05-05 12:17 69.48522 -70.22006 39659 ft 516 kts 82°
2026-05-05 12:17 69.49208 -70.11965 39837 ft 515 kts 82°
2026-05-05 12:18 69.49887 -70.01949 40016 ft 515 kts 82°
2026-05-05 12:18 69.50587 -69.91914 40159 ft 516 kts 81°
2026-05-05 12:18 69.51376 -69.81926 40298 ft 516 kts 79°
2026-05-05 12:18 69.52213 -69.71963 40473 ft 516 kts 79°
2026-05-05 12:19 69.53058 -69.62004 40609 ft 516 kts 79°
2026-05-05 12:19 69.53894 -69.52016 40742 ft 516 kts 79°
2026-05-05 12:19 69.54714 -69.42000 40902 ft 516 kts 79°
2026-05-05 12:19 69.55514 -69.32019 41072 ft 516 kts 79°
2026-05-05 12:20 69.56304 -69.21987 41221 ft 516 kts 80°
2026-05-05 12:20 69.57075 -69.12073 41377 ft 516 kts 80°
2026-05-05 12:20 69.58616 -68.91958 41457 ft 517 kts 80°
2026-05-05 12:21 69.60133 -68.71840 41468 ft 517 kts 80°
2026-05-05 12:21 69.61630 -68.51664 41473 ft 517 kts 80°
2026-05-05 12:22 69.63108 -68.31409 41479 ft 517 kts 81°
2026-05-05 12:22 69.64552 -68.11274 41481 ft 517 kts 81°
2026-05-05 12:23 69.65985 -67.90960 41481 ft 517 kts 81°
2026-05-05 12:23 69.67392 -67.70632 41485 ft 518 kts 81°
2026-05-05 12:24 69.68769 -67.50382 41482 ft 518 kts 81°
2026-05-05 12:24 69.70132 -67.29957 41481 ft 518 kts 81°
2026-05-05 12:25 69.71461 -67.09679 41480 ft 518 kts 81°
2026-05-05 12:25 69.72776 -66.89220 41476 ft 519 kts 82°
2026-05-05 12:26 69.74070 -66.68688 41475 ft 519 kts 82°
2026-05-05 12:26 69.75339 -66.48157 41477 ft 519 kts 82°
2026-05-05 12:27 69.76576 -66.27730 41470 ft 519 kts 82°
2026-05-05 12:27 69.77799 -66.07117 41470 ft 519 kts 82°
2026-05-05 12:28 69.78997 -65.86487 41464 ft 520 kts 82°
2026-05-05 12:28 69.80165 -65.65946 41465 ft 520 kts 83°
2026-05-05 12:29 69.81319 -65.45202 41464 ft 520 kts 83°
2026-05-05 12:29 69.82440 -65.24593 41460 ft 520 kts 83°
2026-05-05 12:30 69.83546 -65.03803 41457 ft 521 kts 83°
2026-05-05 12:30 69.84619 -64.83148 41452 ft 521 kts 83°
2026-05-05 12:31 69.85677 -64.62286 41450 ft 521 kts 83°
2026-05-05 12:31 69.86710 -64.41428 41451 ft 521 kts 83°
2026-05-05 12:32 69.87712 -64.20674 41447 ft 521 kts 84°
2026-05-05 12:32 69.88696 -63.99762 41445 ft 522 kts 84°
2026-05-05 12:33 69.89652 -63.78923 41440 ft 522 kts 84°
2026-05-05 12:33 69.90586 -63.57981 41441 ft 522 kts 84°
2026-05-05 12:34 69.91498 -63.36985 41430 ft 522 kts 84°
2026-05-05 12:34 69.92375 -63.16130 41426 ft 523 kts 85°
2026-05-05 12:35 69.93091 -62.95023 41427 ft 522 kts 86°
2026-05-05 12:35 69.93710 -62.73910 41432 ft 523 kts 86°
2026-05-05 12:36 69.94322 -62.52907 41421 ft 523 kts 86°
2026-05-05 12:36 69.94934 -62.31726 41428 ft 523 kts 86°
2026-05-05 12:37 69.95527 -62.10560 41415 ft 523 kts 86°
2026-05-05 12:37 69.96090 -61.89501 41413 ft 524 kts 87°
2026-05-05 12:38 69.96632 -61.68283 41410 ft 524 kts 87°
2026-05-05 12:38 69.97147 -61.47084 41408 ft 524 kts 87°
2026-05-05 12:39 69.97638 -61.25832 41397 ft 524 kts 87°
2026-05-05 12:39 69.98100 -61.04700 41397 ft 524 kts 88°
2026-05-05 12:40 69.98542 -60.83367 41390 ft 525 kts 88°
2026-05-05 12:40 69.98954 -60.62194 41394 ft 525 kts 88°
2026-05-05 12:41 69.99281 -60.44444 41381 ft 525 kts 88°
2026-05-05 12:41 69.99649 -60.23122 41379 ft 525 kts 88°
2026-05-05 12:42 69.99993 -60.01786 41376 ft 525 kts 88°
2026-05-05 12:42 70.00444 -59.80577 41373 ft 526 kts 86°
2026-05-05 12:43 70.01062 -59.59236 41362 ft 526 kts 86°
2026-05-05 12:43 70.01645 -59.38008 41361 ft 526 kts 86°
2026-05-05 12:44 70.02171 -59.16640 41361 ft 526 kts 86°
2026-05-05 12:44 70.02657 -58.95278 41358 ft 526 kts 87°
2026-05-05 12:45 70.03117 -58.73857 41345 ft 527 kts 87°
2026-05-05 12:45 70.03549 -58.52567 41347 ft 527 kts 87°
2026-05-05 12:46 70.03961 -58.31098 41342 ft 527 kts 87°
2026-05-05 12:46 70.04346 -58.09651 41339 ft 527 kts 87°
2026-05-05 12:47 70.04704 -57.88321 41331 ft 527 kts 88°
2026-05-05 12:47 70.05038 -57.66836 41327 ft 527 kts 88°
2026-05-05 12:48 70.05346 -57.45333 41330 ft 528 kts 88°
2026-05-05 12:48 70.05627 -57.23942 41326 ft 528 kts 88°
2026-05-05 12:49 70.05884 -57.02415 41318 ft 528 kts 88°
2026-05-05 12:49 70.06114 -56.81015 41325 ft 528 kts 88°
2026-05-05 12:50 70.06319 -56.59487 41317 ft 528 kts 88°
2026-05-05 12:50 70.06498 -56.37925 41326 ft 528 kts 89°
2026-05-05 12:51 70.06651 -56.16467 41317 ft 528 kts 89°
2026-05-05 12:51 70.06778 -55.94929 41319 ft 528 kts 89°
2026-05-05 12:52 70.06879 -55.73357 41315 ft 528 kts 89°
2026-05-05 12:52 70.06954 -55.51797 41310 ft 528 kts 89°
2026-05-05 12:53 70.07004 -55.30368 41314 ft 528 kts 89°
2026-05-05 12:53 70.07027 -55.08804 41316 ft 529 kts 90°
2026-05-05 12:54 70.07014 -54.76569 41318 ft 529 kts 90°
2026-05-05 12:55 70.06973 -54.54987 41318 ft 529 kts 90°
2026-05-05 12:55 70.06906 -54.33420 41320 ft 529 kts 90°
2026-05-05 12:56 70.06812 -54.11878 41325 ft 528 kts 90°
2026-05-05 12:56 70.06692 -53.90330 41339 ft 529 kts 90°
2026-05-05 12:57 70.06547 -53.68785 41349 ft 528 kts 91°
2026-05-05 12:57 70.06376 -53.47265 41366 ft 529 kts 91°
2026-05-05 12:58 70.06180 -53.25851 41375 ft 529 kts 91°
2026-05-05 12:58 70.05958 -53.04325 41393 ft 529 kts 91°
2026-05-05 12:59 70.05709 -52.82810 41404 ft 529 kts 91°
2026-05-05 12:59 70.05434 -52.61272 41401 ft 529 kts 91°
2026-05-05 13:00 70.04973 -52.28986 41393 ft 529 kts 91°
2026-05-05 13:01 70.04268 -51.85969 41382 ft 529 kts 92°
2026-05-05 13:01 70.03876 -51.64460 41375 ft 529 kts 92°
2026-05-05 13:02 70.03458 -51.42967 41373 ft 529 kts 92°
2026-05-05 13:02 70.03016 -51.21505 41381 ft 529 kts 92°
2026-05-05 13:03 70.02547 -51.00028 41376 ft 529 kts 92°
2026-05-05 13:03 70.02052 -50.78549 41377 ft 529 kts 92°
2026-05-05 13:04 70.01531 -50.57101 41380 ft 529 kts 93°
2026-05-05 13:04 70.00984 -50.35659 41392 ft 529 kts 93°
2026-05-05 13:05 70.00411 -50.14211 41406 ft 531 kts 93°
2026-05-05 13:05 69.99819 -49.92621 41429 ft 534 kts 92°
2026-05-05 13:06 69.99334 -49.70928 41463 ft 536 kts 91°
2026-05-05 13:06 69.98866 -49.49291 41501 ft 538 kts 92°
2026-05-05 13:07 69.98349 -49.27478 41545 ft 539 kts 92°
2026-05-05 13:07 69.97793 -49.05681 41586 ft 538 kts 92°
2026-05-05 13:08 69.97204 -48.83932 41612 ft 537 kts 92°
2026-05-05 13:08 69.96590 -48.62201 41637 ft 536 kts 93°
2026-05-05 13:09 69.95952 -48.40551 41649 ft 535 kts 93°
2026-05-05 13:09 69.95293 -48.18998 41666 ft 534 kts 93°
2026-05-05 13:10 69.94609 -47.97469 41682 ft 533 kts 93°
2026-05-05 13:10 69.93897 -47.75959 41683 ft 532 kts 94°
2026-05-05 13:11 69.93162 -47.54542 41687 ft 531 kts 94°
2026-05-05 13:11 69.92402 -47.33179 41689 ft 530 kts 94°
2026-05-05 13:12 69.91623 -47.12002 41692 ft 530 kts 94°
2026-05-05 13:12 69.90814 -46.90708 41698 ft 529 kts 94°
2026-05-05 13:13 69.89979 -46.69417 41697 ft 530 kts 95°
2026-05-05 13:13 69.89119 -46.48146 41701 ft 530 kts 95°
2026-05-05 13:14 69.88232 -46.26878 41705 ft 530 kts 95°
2026-05-05 13:14 69.87320 -46.05632 41709 ft 530 kts 95°
2026-05-05 13:15 69.86381 -45.84365 41708 ft 530 kts 95°
2026-05-05 13:15 69.85417 -45.63132 41712 ft 531 kts 95°
2026-05-05 13:16 69.84434 -45.42063 41716 ft 531 kts 96°
2026-05-05 13:16 69.83418 -45.20838 41717 ft 531 kts 96°
2026-05-05 13:17 69.82375 -44.99610 41725 ft 531 kts 96°
2026-05-05 13:17 69.81309 -44.78435 41722 ft 532 kts 96°
2026-05-05 13:18 69.80215 -44.57243 41722 ft 532 kts 96°
2026-05-05 13:18 69.79103 -44.36209 41723 ft 532 kts 96°
2026-05-05 13:19 69.77959 -44.15075 41727 ft 532 kts 97°
2026-05-05 13:19 69.76790 -43.93973 41719 ft 532 kts 97°
2026-05-05 13:20 69.75597 -43.72897 41725 ft 532 kts 97°
2026-05-05 13:20 69.74381 -43.51902 41725 ft 532 kts 97°
2026-05-05 13:21 69.73132 -43.30776 41720 ft 532 kts 97°
2026-05-05 13:21 69.71866 -43.09824 41720 ft 532 kts 97°
2026-05-05 13:22 69.70570 -42.88810 41725 ft 532 kts 97°
2026-05-05 13:22 69.69246 -42.67785 41713 ft 532 kts 98°
2026-05-05 13:23 69.67901 -42.46837 41717 ft 532 kts 98°
2026-05-05 13:23 69.66541 -42.26083 41722 ft 532 kts 98°
2026-05-05 13:24 69.65144 -42.05147 41720 ft 532 kts 98°
2026-05-05 13:24 69.63723 -41.84272 41714 ft 532 kts 98°
2026-05-05 13:25 69.62287 -41.63557 41710 ft 532 kts 98°
2026-05-05 13:25 69.60814 -41.42684 41708 ft 532 kts 99°
2026-05-05 13:26 69.59330 -41.22037 41705 ft 532 kts 99°
2026-05-05 13:26 69.57811 -41.01283 41705 ft 532 kts 99°
2026-05-05 13:27 69.56268 -40.80558 41702 ft 532 kts 99°
2026-05-05 13:27 69.54699 -40.59844 41704 ft 532 kts 99°
2026-05-05 13:28 69.53114 -40.39263 41701 ft 531 kts 99°
2026-05-05 13:28 69.51508 -40.18758 41699 ft 531 kts 100°
2026-05-05 13:29 69.50146 -40.01628 41692 ft 531 kts 100°
2026-05-05 13:29 69.48612 -39.80980 41693 ft 530 kts 98°
2026-05-05 13:30 69.47237 -39.60301 41688 ft 530 kts 98°
2026-05-05 13:30 69.45839 -39.39778 41687 ft 530 kts 98°
2026-05-05 13:31 69.44376 -39.19175 41683 ft 530 kts 98°
2026-05-05 13:31 69.42882 -38.98712 41680 ft 530 kts 99°
2026-05-05 13:32 69.41356 -38.78196 41679 ft 530 kts 99°
2026-05-05 13:32 69.39804 -38.57678 41673 ft 530 kts 99°
2026-05-05 13:33 69.38242 -38.37338 41675 ft 530 kts 99°
2026-05-05 13:33 69.36645 -38.16902 41671 ft 530 kts 99°
2026-05-05 13:34 69.35027 -37.96525 41674 ft 530 kts 100°
2026-05-05 13:34 69.33385 -37.76172 41666 ft 529 kts 100°
2026-05-05 13:35 69.31727 -37.55954 41674 ft 529 kts 100°
2026-05-05 13:35 69.30039 -37.35685 41674 ft 529 kts 100°
2026-05-05 13:36 69.28321 -37.15376 41687 ft 529 kts 101°
2026-05-05 13:36 69.26597 -36.95309 41686 ft 529 kts 101°
2026-05-05 13:37 69.24837 -36.75120 41683 ft 529 kts 101°
2026-05-05 13:37 69.23054 -36.54975 41685 ft 529 kts 101°
2026-05-05 13:38 69.21258 -36.34977 41686 ft 529 kts 101°
2026-05-05 13:38 69.19428 -36.14897 41690 ft 529 kts 102°
2026-05-05 13:39 69.17578 -35.94887 41695 ft 529 kts 102°
2026-05-05 13:39 69.15707 -35.74932 41696 ft 529 kts 102°
2026-05-05 13:40 69.13816 -35.55038 41700 ft 528 kts 102°
2026-05-05 13:40 69.11894 -35.35101 41705 ft 528 kts 102°
2026-05-05 13:41 69.09950 -35.15206 41707 ft 528 kts 102°
2026-05-05 13:41 69.07994 -34.95463 41711 ft 528 kts 103°
2026-05-05 13:42 69.06002 -34.75623 41713 ft 528 kts 103°
2026-05-05 13:42 69.04004 -34.55985 41718 ft 528 kts 103°
2026-05-05 13:43 69.01970 -34.36249 41724 ft 528 kts 103°
2026-05-05 13:43 68.99926 -34.16669 41730 ft 528 kts 103°
2026-05-05 13:44 68.97845 -33.96985 41736 ft 528 kts 104°
2026-05-05 13:44 68.95754 -33.77464 41734 ft 528 kts 104°
2026-05-05 13:45 68.93634 -33.57914 41725 ft 527 kts 104°
2026-05-05 13:45 68.91493 -33.38416 41710 ft 527 kts 104°
2026-05-05 13:46 68.89330 -33.18948 41694 ft 527 kts 104°
2026-05-05 13:46 68.87154 -32.99610 41671 ft 527 kts 105°
2026-05-05 13:47 68.84955 -32.80302 41652 ft 527 kts 105°
2026-05-05 13:47 68.82724 -32.60934 41642 ft 527 kts 105°
2026-05-05 13:48 68.80467 -32.41575 41631 ft 527 kts 105°
2026-05-05 13:48 68.78209 -32.22435 41635 ft 527 kts 105°
2026-05-05 13:49 68.75911 -32.03186 41623 ft 527 kts 106°
2026-05-05 13:49 68.73596 -31.84008 41616 ft 526 kts 106°
2026-05-05 13:50 68.71271 -31.64972 41614 ft 526 kts 106°
2026-05-05 13:50 68.68925 -31.45968 41610 ft 526 kts 106°
2026-05-05 13:51 68.66547 -31.26929 41596 ft 526 kts 107°
2026-05-05 13:51 68.64149 -31.07933 41598 ft 526 kts 107°
2026-05-05 13:52 68.61727 -30.88962 41595 ft 526 kts 107°
2026-05-05 13:52 68.59303 -30.70182 41591 ft 525 kts 107°
2026-05-05 13:53 68.56838 -30.51293 41588 ft 525 kts 107°
2026-05-05 13:53 68.54372 -30.32585 41579 ft 525 kts 108°
2026-05-05 13:54 68.51869 -30.13805 41573 ft 525 kts 108°
2026-05-05 13:54 68.49371 -29.95183 41566 ft 525 kts 107°
2026-05-05 13:55 68.47184 -29.76334 41563 ft 523 kts 104°
2026-05-05 13:55 68.45125 -29.57326 41566 ft 523 kts 104°
2026-05-05 13:56 68.43006 -29.38425 41561 ft 523 kts 105°
2026-05-05 13:56 68.40815 -29.19542 41552 ft 523 kts 105°
2026-05-05 13:57 68.38592 -29.00735 41551 ft 522 kts 105°
2026-05-05 13:57 68.36366 -28.82104 41548 ft 522 kts 106°
2026-05-05 13:58 68.34103 -28.63363 41548 ft 522 kts 106°
2026-05-05 13:58 68.31824 -28.44688 41546 ft 522 kts 106°
2026-05-05 13:59 68.28375 -28.16813 41542 ft 522 kts 107°
2026-05-05 14:00 68.25264 -27.92065 41541 ft 521 kts 107°
2026-05-05 14:00 68.22521 -27.70533 41543 ft 521 kts 107°
2026-05-05 14:01 68.20141 -27.52067 41547 ft 521 kts 107°
2026-05-05 14:01 68.17759 -27.33776 41548 ft 521 kts 107°
2026-05-05 14:02 68.15338 -27.15388 41545 ft 521 kts 108°
2026-05-05 14:02 68.12899 -26.97055 41530 ft 521 kts 108°
2026-05-05 14:03 68.10441 -26.78770 41539 ft 520 kts 108°
2026-05-05 14:03 68.07981 -26.60653 41546 ft 520 kts 108°
2026-05-05 14:04 68.05484 -26.42449 41546 ft 520 kts 108°
2026-05-05 14:04 68.02980 -26.24385 41542 ft 520 kts 108°
2026-05-05 14:05 68.00442 -26.06254 41546 ft 520 kts 109°
2026-05-05 14:05 67.97881 -25.88141 41544 ft 520 kts 109°
2026-05-05 14:06 67.95323 -25.70228 41544 ft 520 kts 109°
2026-05-05 14:06 67.92727 -25.52227 41543 ft 520 kts 109°
2026-05-05 14:07 67.90128 -25.34380 41544 ft 520 kts 109°
2026-05-05 14:07 67.87497 -25.16486 41541 ft 519 kts 110°
2026-05-05 14:08 67.84846 -24.98635 41537 ft 519 kts 110°
2026-05-05 14:08 67.82191 -24.80919 41537 ft 520 kts 110°
2026-05-05 14:09 67.79500 -24.63138 41534 ft 520 kts 110°
2026-05-05 14:09 67.76802 -24.45475 41530 ft 519 kts 110°
2026-05-05 14:10 67.74071 -24.27765 41526 ft 519 kts 110°
2026-05-05 14:10 67.71341 -24.10220 41524 ft 519 kts 111°
2026-05-05 14:11 67.68577 -23.92625 41517 ft 520 kts 111°
2026-05-05 14:11 67.65788 -23.75030 41513 ft 521 kts 111°
2026-05-05 14:12 67.62992 -23.57556 41507 ft 522 kts 111°
2026-05-05 14:12 67.60154 -23.39973 41506 ft 523 kts 111°
2026-05-05 14:13 67.57291 -23.22398 41499 ft 524 kts 111°
2026-05-05 14:13 67.54892 -23.07788 41490 ft 525 kts 111°
2026-05-05 14:14 67.51514 -22.87406 41487 ft 525 kts 112°
2026-05-05 14:14 67.49080 -22.72857 41478 ft 525 kts 111°
2026-05-05 14:15 67.46141 -22.55421 41477 ft 525 kts 112°
2026-05-05 14:15 67.43176 -22.38001 41474 ft 526 kts 112°
2026-05-05 14:16 67.40197 -22.20624 41464 ft 526 kts 112°
2026-05-05 14:16 67.37200 -22.03298 41455 ft 525 kts 112°
2026-05-05 14:17 67.34184 -21.86044 41453 ft 525 kts 112°
2026-05-05 14:17 67.31147 -21.68811 41445 ft 525 kts 113°
2026-05-05 14:18 67.28091 -21.51611 41441 ft 525 kts 113°
2026-05-05 14:18 67.25048 -21.34614 41434 ft 524 kts 113°
2026-05-05 14:19 67.21963 -21.17536 41428 ft 524 kts 113°
2026-05-05 14:19 67.18863 -21.00527 41419 ft 525 kts 114°
2026-05-05 14:20 67.15740 -20.83528 41412 ft 524 kts 114°
2026-05-05 14:20 67.12601 -20.66583 41405 ft 524 kts 114°
2026-05-05 14:21 67.09461 -20.49784 41400 ft 524 kts 114°
2026-05-05 14:21 67.06284 -20.32916 41393 ft 524 kts 114°
2026-05-05 14:22 67.03097 -20.16118 41388 ft 524 kts 114°
2026-05-05 14:22 66.99896 -19.99385 41383 ft 524 kts 114°
2026-05-05 14:23 66.97006 -19.82315 41374 ft 522 kts 109°
2026-05-05 14:23 66.94433 -19.64975 41371 ft 522 kts 109°
2026-05-05 14:24 66.91810 -19.47700 41367 ft 522 kts 110°
2026-05-05 14:24 66.89099 -19.30520 41361 ft 522 kts 110°
2026-05-05 14:25 66.86349 -19.13450 41356 ft 521 kts 111°
2026-05-05 14:25 66.83582 -18.96427 41349 ft 521 kts 111°
2026-05-05 14:26 66.80798 -18.79446 41346 ft 521 kts 111°
2026-05-05 14:26 66.78003 -18.62527 41341 ft 520 kts 111°
2026-05-05 14:27 66.75193 -18.45661 41333 ft 520 kts 111°
2026-05-05 14:27 66.72361 -18.28810 41324 ft 519 kts 111°
2026-05-05 14:28 66.69518 -18.12038 41320 ft 519 kts 112°
2026-05-05 14:28 66.66658 -17.95313 41320 ft 519 kts 112°
2026-05-05 14:29 66.63800 -17.78738 41323 ft 519 kts 112°
2026-05-05 14:29 66.60909 -17.62113 41320 ft 519 kts 112°
2026-05-05 14:30 66.57997 -17.45508 41315 ft 519 kts 112°
2026-05-05 14:30 66.55067 -17.28937 41310 ft 519 kts 113°
2026-05-05 14:31 66.52123 -17.12422 41303 ft 519 kts 113°
2026-05-05 14:31 66.49156 -16.95917 41301 ft 519 kts 113°
2026-05-05 14:32 66.46177 -16.79482 41296 ft 519 kts 113°
2026-05-05 14:32 66.43175 -16.63059 41293 ft 519 kts 113°
2026-05-05 14:33 66.40160 -16.46689 41289 ft 519 kts 114°
2026-05-05 14:33 66.37145 -16.30458 41286 ft 519 kts 114°
2026-05-05 14:34 66.34093 -16.14155 41284 ft 519 kts 114°
2026-05-05 14:34 66.31022 -15.97881 41280 ft 519 kts 114°
2026-05-05 14:35 66.27936 -15.81659 41278 ft 519 kts 114°
2026-05-05 14:35 66.24828 -15.65453 41269 ft 519 kts 114°
2026-05-05 14:36 66.21709 -15.49312 41266 ft 519 kts 115°
2026-05-05 14:36 66.18568 -15.33188 41263 ft 519 kts 115°
2026-05-05 14:37 66.15408 -15.17090 41261 ft 519 kts 115°
2026-05-05 14:37 66.12247 -15.01108 41255 ft 519 kts 115°
2026-05-05 14:38 66.09053 -14.85087 41253 ft 519 kts 115°
2026-05-05 14:38 66.05848 -14.69136 41250 ft 519 kts 115°
2026-05-05 14:39 66.02621 -14.53197 41237 ft 520 kts 115°
2026-05-05 14:39 65.99407 -14.37440 41244 ft 520 kts 116°
2026-05-05 14:40 65.96154 -14.21611 41243 ft 520 kts 116°
2026-05-05 14:40 65.92876 -14.05781 41226 ft 520 kts 116°
2026-05-05 14:41 65.89586 -13.90013 41225 ft 520 kts 116°
2026-05-05 14:41 65.86280 -13.74285 41227 ft 520 kts 116°
2026-05-05 14:42 65.82957 -13.58593 41216 ft 520 kts 116°
2026-05-05 14:42 65.79620 -13.42953 41211 ft 520 kts 116°
2026-05-05 14:43 65.76265 -13.27340 41210 ft 520 kts 117°
2026-05-05 14:43 65.72890 -13.11754 41205 ft 520 kts 117°
2026-05-05 14:44 65.69502 -12.96219 41205 ft 520 kts 117°
2026-05-05 14:44 65.66118 -12.80812 41199 ft 521 kts 117°
2026-05-05 14:45 65.62698 -12.65356 41193 ft 521 kts 117°
2026-05-05 14:45 65.59259 -12.49924 41185 ft 521 kts 117°
2026-05-05 14:46 65.55805 -12.34540 41184 ft 521 kts 118°
2026-05-05 14:46 65.52335 -12.19189 41180 ft 521 kts 118°
2026-05-05 14:47 65.48847 -12.03872 41176 ft 521 kts 118°
2026-05-05 14:47 65.45345 -11.88599 41166 ft 521 kts 118°
2026-05-05 14:48 65.41826 -11.73359 41169 ft 521 kts 118°
2026-05-05 14:48 65.38290 -11.58155 41167 ft 521 kts 118°
2026-05-05 14:49 65.34737 -11.42987 41163 ft 521 kts 118°
2026-05-05 14:49 65.31196 -11.27969 41158 ft 521 kts 119°
2026-05-05 14:50 65.27616 -11.12895 41153 ft 521 kts 119°
2026-05-05 14:50 65.24021 -10.97858 41145 ft 521 kts 119°
2026-05-05 14:51 65.20405 -10.82841 41144 ft 522 kts 119°
2026-05-05 14:51 65.16774 -10.67865 41138 ft 522 kts 119°
2026-05-05 14:52 65.13134 -10.52951 41138 ft 522 kts 120°
2026-05-05 14:52 65.09478 -10.38071 41133 ft 522 kts 120°
2026-05-05 14:53 65.05802 -10.23216 41131 ft 522 kts 120°
2026-05-05 14:53 65.02139 -10.08511 41128 ft 522 kts 120°
2026-05-05 14:54 64.98144 -9.94160 41126 ft 522 kts 126°
2026-05-05 14:54 64.93813 -9.80394 41121 ft 522 kts 127°
2026-05-05 14:55 64.89416 -9.66737 41118 ft 522 kts 127°
2026-05-05 14:55 64.85015 -9.53144 41116 ft 522 kts 127°
2026-05-05 14:56 64.80607 -9.39569 41114 ft 522 kts 127°
2026-05-05 14:56 64.76188 -9.26029 41111 ft 522 kts 127°
2026-05-05 14:57 64.71752 -9.12514 41109 ft 523 kts 128°
2026-05-05 14:57 64.67340 -8.99158 41106 ft 523 kts 128°
2026-05-05 14:58 64.62883 -8.85744 41102 ft 523 kts 128°
2026-05-05 14:58 64.58411 -8.72367 41100 ft 523 kts 128°
2026-05-05 14:59 64.53930 -8.59044 41095 ft 523 kts 128°
2026-05-05 14:59 64.49443 -8.45780 41088 ft 523 kts 128°
2026-05-05 15:00 64.45696 -8.34765 41093 ft 523 kts 128°
2026-05-05 15:00 64.40416 -8.19335 41089 ft 523 kts 129°
2026-05-05 15:01 64.36644 -8.08377 41086 ft 523 kts 129°
2026-05-05 15:01 64.32108 -7.95270 41082 ft 523 kts 129°
2026-05-05 15:02 64.27553 -7.82187 41079 ft 523 kts 129°
2026-05-05 15:02 64.22985 -7.69142 41084 ft 523 kts 129°
2026-05-05 15:03 64.18401 -7.56128 41077 ft 523 kts 129°
2026-05-05 15:03 64.13811 -7.43172 41076 ft 524 kts 129°
2026-05-05 15:04 64.09210 -7.30258 41078 ft 524 kts 129°
2026-05-05 15:04 64.04620 -7.17452 41075 ft 524 kts 130°
2026-05-05 15:05 63.97671 -6.98203 41071 ft 524 kts 130°
2026-05-05 15:06 63.93021 -6.85412 41073 ft 524 kts 130°
2026-05-05 15:06 63.88363 -6.72676 41063 ft 524 kts 130°
2026-05-05 15:07 63.83692 -6.59974 41070 ft 524 kts 130°
2026-05-05 15:07 63.79006 -6.47307 41062 ft 524 kts 130°
2026-05-05 15:08 63.74312 -6.34688 41063 ft 524 kts 131°
2026-05-05 15:08 63.69638 -6.22193 41066 ft 524 kts 131°
2026-05-05 15:09 63.64924 -6.09664 41060 ft 524 kts 131°
2026-05-05 15:09 63.60199 -5.97173 41063 ft 524 kts 131°
2026-05-05 15:10 63.55463 -5.84726 41065 ft 524 kts 131°
2026-05-05 15:10 63.50718 -5.72323 41059 ft 524 kts 131°
2026-05-05 15:11 63.45961 -5.59959 41061 ft 524 kts 131°
2026-05-05 15:11 63.41196 -5.47641 41059 ft 523 kts 132°
2026-05-05 15:12 63.36424 -5.35375 41070 ft 523 kts 132°
2026-05-05 15:12 63.31637 -5.23138 41051 ft 523 kts 132°
2026-05-05 15:13 63.26881 -5.11046 41056 ft 523 kts 132°
2026-05-05 15:13 63.22078 -4.98902 41062 ft 524 kts 132°
2026-05-05 15:14 63.17260 -4.86786 41060 ft 524 kts 133°
2026-05-05 15:14 63.12436 -4.74722 41058 ft 524 kts 133°
2026-05-05 15:15 63.07601 -4.62695 41061 ft 524 kts 133°
2026-05-05 15:15 63.02754 -4.50704 41056 ft 524 kts 133°
2026-05-05 15:16 62.97897 -4.38753 41058 ft 524 kts 133°
2026-05-05 15:16 62.93026 -4.26830 41058 ft 524 kts 133°
2026-05-05 15:17 62.88148 -4.14956 41058 ft 524 kts 133°
2026-05-05 15:17 62.83257 -4.03116 41058 ft 524 kts 134°
2026-05-05 15:18 62.78352 -3.91301 41056 ft 524 kts 134°
2026-05-05 15:18 62.73440 -3.79534 41056 ft 524 kts 134°
2026-05-05 15:19 62.68520 -3.67812 41059 ft 524 kts 134°
2026-05-05 15:19 62.63591 -3.56130 41054 ft 524 kts 134°
2026-05-05 15:20 62.58682 -3.44555 41055 ft 524 kts 134°
2026-05-05 15:20 62.53732 -3.32946 41057 ft 524 kts 134°
2026-05-05 15:21 62.48769 -3.21369 41054 ft 524 kts 134°
2026-05-05 15:21 62.43799 -3.09834 41055 ft 524 kts 135°
2026-05-05 15:22 62.38817 -2.98333 41057 ft 524 kts 135°
2026-05-05 15:22 62.33822 -2.86860 41053 ft 524 kts 135°
2026-05-05 15:23 62.28827 -2.75449 41057 ft 524 kts 135°
2026-05-05 15:23 62.23817 -2.64062 41056 ft 524 kts 135°
2026-05-05 15:24 62.18800 -2.52719 41057 ft 524 kts 135°
2026-05-05 15:24 62.13767 -2.41397 41057 ft 524 kts 135°
2026-05-05 15:25 62.08727 -2.30119 41056 ft 525 kts 135°
2026-05-05 15:25 62.03677 -2.18875 41055 ft 524 kts 136°
2026-05-05 15:26 61.98626 -2.07686 41055 ft 524 kts 136°
2026-05-05 15:26 61.93556 -1.96515 41055 ft 524 kts 136°
2026-05-05 15:27 61.88481 -1.85387 41056 ft 525 kts 136°
2026-05-05 15:27 61.83394 -1.74290 41052 ft 524 kts 136°
2026-05-05 15:28 61.78332 -1.63303 41055 ft 524 kts 136°
2026-05-05 15:28 61.73230 -1.52284 41050 ft 525 kts 136°
2026-05-05 15:29 61.68123 -1.41311 41050 ft 524 kts 136°
2026-05-05 15:29 61.63003 -1.30365 41051 ft 524 kts 137°
2026-05-05 15:30 61.57877 -1.19461 41049 ft 525 kts 137°
2026-05-05 15:30 61.52735 -1.08576 41054 ft 524 kts 137°
2026-05-05 15:31 61.47595 -0.97752 41050 ft 524 kts 137°
2026-05-05 15:31 61.42468 -0.87007 41050 ft 524 kts 137°
2026-05-05 15:32 61.37310 -0.76252 41050 ft 524 kts 137°
2026-05-05 15:32 61.32140 -0.65524 41046 ft 524 kts 137°
2026-05-05 15:33 61.26962 -0.54831 41051 ft 524 kts 137°
2026-05-05 15:33 61.21778 -0.44179 41047 ft 524 kts 137°
2026-05-05 15:34 61.16587 -0.33565 41047 ft 524 kts 138°
2026-05-05 15:34 61.11389 -0.22990 41047 ft 524 kts 138°
2026-05-05 15:35 61.06177 -0.12436 41045 ft 524 kts 138°
2026-05-05 15:35 61.00963 -0.02025 41042 ft 523 kts 141°
2026-05-05 15:36 60.95196 0.06998 41046 ft 520 kts 147°
2026-05-05 15:36 60.89261 0.15526 41045 ft 519 kts 148°
2026-05-05 15:37 60.83332 0.23908 41045 ft 519 kts 148°
2026-05-05 15:37 60.77382 0.32314 41056 ft 519 kts 148°
2026-05-05 15:38 60.71466 0.40665 41048 ft 519 kts 148°
2026-05-05 15:38 60.65523 0.49025 41047 ft 518 kts 148°
2026-05-05 15:39 60.59563 0.57368 41046 ft 518 kts 148°
2026-05-05 15:39 60.53650 0.65609 41047 ft 518 kts 149°
2026-05-05 15:40 60.47688 0.73880 41043 ft 518 kts 149°
2026-05-05 15:40 60.41736 0.82099 41043 ft 518 kts 149°
2026-05-05 15:41 60.35803 0.90255 41046 ft 517 kts 149°
2026-05-05 15:41 60.29831 0.98428 41051 ft 517 kts 149°
2026-05-05 15:42 60.23896 1.06515 41045 ft 517 kts 149°
2026-05-05 15:42 60.17918 1.14623 41046 ft 517 kts 149°
2026-05-05 15:43 60.11946 1.22688 41046 ft 517 kts 149°
2026-05-05 15:43 60.05961 1.30734 41045 ft 517 kts 149°
2026-05-05 15:44 60.00026 1.38676 41044 ft 517 kts 149°
2026-05-05 15:44 59.94029 1.46668 41041 ft 517 kts 149°
2026-05-05 15:45 59.88040 1.54614 41047 ft 517 kts 149°
2026-05-05 15:45 59.82077 1.62490 41045 ft 517 kts 149°
2026-05-05 15:46 59.76071 1.70389 41050 ft 517 kts 149°
2026-05-05 15:46 59.70059 1.78260 41049 ft 517 kts 150°
2026-05-05 15:47 59.64089 1.86042 41047 ft 517 kts 150°
2026-05-05 15:47 59.58065 1.93861 41046 ft 517 kts 150°
2026-05-05 15:48 59.52078 2.01600 41048 ft 516 kts 150°
2026-05-05 15:48 59.46050 2.09356 41045 ft 516 kts 150°
2026-05-05 15:49 59.40036 2.17062 41045 ft 516 kts 150°
2026-05-05 15:49 59.33999 2.24763 41044 ft 516 kts 150°
2026-05-05 15:50 59.28006 2.32376 41041 ft 516 kts 150°
2026-05-05 15:50 59.22991 2.38721 41039 ft 515 kts 150°
2026-05-05 15:51 59.16963 2.46320 41042 ft 515 kts 150°
2026-05-05 15:51 59.10934 2.53885 41042 ft 514 kts 150°
2026-05-05 15:52 59.04906 2.61419 41040 ft 514 kts 151°
2026-05-05 15:52 58.98912 2.68878 41040 ft 514 kts 151°
2026-05-05 15:53 58.92883 2.76349 41044 ft 514 kts 151°
2026-05-05 15:53 58.86884 2.83751 41044 ft 513 kts 151°
2026-05-05 15:54 58.80846 2.91171 41044 ft 513 kts 151°
2026-05-05 15:54 58.74812 2.98555 41045 ft 513 kts 151°
2026-05-05 15:55 58.68770 3.05918 41044 ft 513 kts 151°
2026-05-05 15:55 58.62756 3.13216 41042 ft 513 kts 151°
2026-05-05 15:56 58.56712 3.20522 41043 ft 512 kts 151°
2026-05-05 15:56 58.50709 3.27747 41043 ft 512 kts 151°
2026-05-05 15:57 58.44661 3.34997 41046 ft 511 kts 151°
2026-05-05 15:57 58.38625 3.42203 41044 ft 510 kts 152°
2026-05-05 15:58 58.32624 3.49338 41045 ft 510 kts 152°
2026-05-05 15:58 58.26634 3.56431 41036 ft 509 kts 152°
2026-05-05 15:59 58.20597 3.63550 41047 ft 509 kts 152°
2026-05-05 15:59 58.14592 3.70602 41040 ft 509 kts 152°
2026-05-05 16:00 58.08556 3.77664 41039 ft 509 kts 152°
2026-05-05 16:00 58.02550 3.84661 41040 ft 509 kts 152°
2026-05-05 16:01 57.96504 3.91677 41042 ft 509 kts 152°
2026-05-05 16:01 57.90454 3.98670 41041 ft 509 kts 152°
2026-05-05 16:02 57.84437 4.05597 41037 ft 508 kts 152°
2026-05-05 16:02 57.78408 4.12511 41038 ft 508 kts 152°
2026-05-05 16:03 57.72366 4.19411 41037 ft 508 kts 152°
2026-05-05 16:03 57.66328 4.26281 41032 ft 508 kts 152°
2026-05-05 16:04 57.60297 4.33115 41031 ft 507 kts 152°
2026-05-05 16:04 57.54297 4.39888 41031 ft 507 kts 152°
2026-05-05 16:05 57.48262 4.46675 41029 ft 506 kts 152°
2026-05-05 16:05 57.42224 4.53437 41030 ft 506 kts 152°
2026-05-05 16:06 57.36193 4.60165 41034 ft 506 kts 153°
2026-05-05 16:06 57.30161 4.66868 41027 ft 506 kts 153°
2026-05-05 16:07 57.24122 4.73553 41023 ft 506 kts 153°
2026-05-05 16:07 57.18081 4.80214 41024 ft 505 kts 153°
2026-05-05 16:08 57.12044 4.86846 41012 ft 505 kts 153°
2026-05-05 16:08 57.06000 4.93459 41023 ft 505 kts 153°
2026-05-05 16:09 56.99918 4.99929 41017 ft 502 kts 158°
2026-05-05 16:09 56.93655 5.05470 41021 ft 501 kts 158°
2026-05-05 16:10 56.87352 5.10823 41013 ft 500 kts 159°
2026-05-05 16:10 56.81023 5.16152 41014 ft 500 kts 159°
2026-05-05 16:11 56.74713 5.21466 41011 ft 499 kts 159°
2026-05-05 16:12 56.62116 5.32040 41008 ft 498 kts 159°
2026-05-05 16:13 56.46402 5.45124 41005 ft 497 kts 159°
2026-05-05 16:13 56.40121 5.50319 41003 ft 497 kts 159°
2026-05-05 16:14 56.27563 5.60650 40993 ft 496 kts 159°
2026-05-05 16:15 56.14984 5.70923 40990 ft 496 kts 159°
2026-05-05 16:16 56.02458 5.81080 40990 ft 495 kts 159°
2026-05-05 16:17 55.93037 5.88673 40985 ft 495 kts 159°
2026-05-05 16:18 55.83619 5.96221 40984 ft 494 kts 159°
2026-05-05 16:19 55.74193 6.03736 40985 ft 494 kts 159°
2026-05-05 16:19 55.64784 6.11198 40979 ft 494 kts 159°
2026-05-05 16:20 55.52220 6.21100 40978 ft 494 kts 159°
2026-05-05 16:22 55.36550 6.33354 40974 ft 494 kts 159°
2026-05-05 16:23 55.23986 6.43102 40974 ft 493 kts 159°
2026-05-05 16:23 55.14578 6.50358 40976 ft 492 kts 159°
2026-05-05 16:24 55.08303 6.55176 40970 ft 492 kts 159°
2026-05-05 16:25 54.98826 6.61807 40977 ft 487 kts 169°
2026-05-05 16:25 54.88954 6.65690 40973 ft 485 kts 171°
2026-05-05 16:26 54.75715 6.70436 40964 ft 486 kts 171°
2026-05-05 16:27 54.69103 6.72834 40966 ft 486 kts 171°
2026-05-05 16:27 54.62490 6.75234 40964 ft 485 kts 171°
2026-05-05 16:28 54.55873 6.77627 40962 ft 485 kts 171°
2026-05-05 16:28 54.49261 6.80010 40961 ft 485 kts 171°
2026-05-05 16:29 54.42642 6.82386 40960 ft 485 kts 171°
2026-05-05 16:29 54.36073 6.84737 40956 ft 485 kts 171°
2026-05-05 16:30 54.29459 6.87096 40957 ft 485 kts 171°
2026-05-05 16:30 54.22858 6.89443 40953 ft 485 kts 171°
2026-05-05 16:31 54.16237 6.91789 40951 ft 485 kts 171°
2026-05-05 16:31 54.09620 6.94127 40951 ft 485 kts 171°
2026-05-05 16:32 54.03009 6.96455 40949 ft 485 kts 171°
2026-05-05 16:32 53.96403 6.98773 40939 ft 484 kts 171°
2026-05-05 16:33 53.89844 7.01068 40941 ft 484 kts 171°
2026-05-05 16:33 53.83254 7.03365 40942 ft 484 kts 171°
2026-05-05 16:34 53.76660 7.05657 40942 ft 483 kts 171°
2026-05-05 16:34 53.70077 7.07938 40936 ft 483 kts 171°
2026-05-05 16:35 53.63498 7.10210 40939 ft 482 kts 171°
2026-05-05 16:35 53.56922 7.12474 40936 ft 482 kts 171°
2026-05-05 16:36 53.50353 7.14728 40938 ft 481 kts 171°
2026-05-05 16:36 53.43786 7.16974 40939 ft 481 kts 171°
2026-05-05 16:37 53.37223 7.19212 40936 ft 481 kts 171°
2026-05-05 16:37 53.30664 7.21441 40939 ft 481 kts 171°
2026-05-05 16:38 53.25206 7.23291 40930 ft 481 kts 171°
2026-05-05 16:38 53.18642 7.25510 40929 ft 481 kts 171°
2026-05-05 16:39 53.12082 7.27720 40913 ft 481 kts 171°
2026-05-05 16:39 53.05555 7.29912 40908 ft 481 kts 172°
2026-05-05 16:40 52.98999 7.32108 40893 ft 481 kts 172°
2026-05-05 16:40 52.92441 7.34297 40890 ft 480 kts 172°
2026-05-05 16:41 52.85878 7.36481 40883 ft 480 kts 172°
2026-05-05 16:41 52.79336 7.38651 40884 ft 480 kts 172°
2026-05-05 16:42 52.72773 7.40821 40883 ft 480 kts 172°
2026-05-05 16:42 52.66232 7.42978 40884 ft 480 kts 172°
2026-05-05 16:43 52.59685 7.45130 40884 ft 479 kts 172°
2026-05-05 16:43 52.53140 7.47275 40890 ft 479 kts 172°
2026-05-05 16:44 52.46597 7.49413 40878 ft 479 kts 172°
2026-05-05 16:44 52.40061 7.51542 40873 ft 478 kts 172°
2026-05-05 16:45 52.33567 7.53651 40861 ft 478 kts 172°
2026-05-05 16:45 52.27030 7.55767 40862 ft 478 kts 172°
2026-05-05 16:46 52.20497 7.57876 40856 ft 478 kts 172°
2026-05-05 16:46 52.13972 7.59976 40858 ft 477 kts 172°
2026-05-05 16:47 52.07457 7.62066 40857 ft 477 kts 172°
2026-05-05 16:47 52.00991 7.64135 40855 ft 477 kts 172°
2026-05-05 16:48 51.94482 7.66211 40861 ft 477 kts 172°
2026-05-05 16:48 51.87978 7.68280 40861 ft 476 kts 172°
2026-05-05 16:49 51.81467 7.70345 40859 ft 476 kts 172°
2026-05-05 16:49 51.74962 7.72401 40857 ft 476 kts 172°
2026-05-05 16:50 51.68459 7.74451 40856 ft 476 kts 172°
2026-05-05 16:50 51.61958 7.76494 40856 ft 476 kts 172°
2026-05-05 16:51 51.55465 7.78530 40854 ft 475 kts 172°
2026-05-05 16:51 51.48964 7.80561 40855 ft 475 kts 172°
2026-05-05 16:52 51.42479 7.82582 40853 ft 475 kts 172°
2026-05-05 16:52 51.35978 7.84601 40846 ft 475 kts 172°
2026-05-05 16:53 51.29534 7.86597 40843 ft 475 kts 172°
2026-05-05 16:53 51.23041 7.88604 40831 ft 475 kts 172°
2026-05-05 16:54 51.16551 7.90603 40821 ft 475 kts 172°
2026-05-05 16:54 51.10070 7.92594 40813 ft 474 kts 172°
2026-05-05 16:55 51.03585 7.94579 40821 ft 474 kts 172°
2026-05-05 16:55 50.97101 7.96560 40818 ft 474 kts 172°
2026-05-05 16:56 50.90623 7.98543 40821 ft 474 kts 171°
2026-05-05 16:56 50.84169 8.00788 40825 ft 474 kts 170°
2026-05-05 16:57 50.77767 8.03125 40828 ft 474 kts 170°
2026-05-05 16:57 50.71336 8.05431 40829 ft 474 kts 170°
2026-05-05 16:58 50.64911 8.07693 40829 ft 473 kts 171°
2026-05-05 16:58 50.58778 8.11034 40825 ft 479 kts 155°
2026-05-05 16:59 50.53028 8.16401 40823 ft 482 kts 150°
2026-05-05 16:59 50.47392 8.22122 40821 ft 482 kts 150°
2026-05-05 17:00 50.41764 8.27848 40816 ft 482 kts 150°
2026-05-05 17:00 50.36142 8.33492 40820 ft 482 kts 150°
2026-05-05 17:01 50.30507 8.39231 40827 ft 484 kts 146°
2026-05-05 17:01 50.25583 8.46395 40834 ft 488 kts 137°
2026-05-05 17:02 50.20925 8.54216 40823 ft 489 kts 135°
2026-05-05 17:02 50.16331 8.62061 40825 ft 489 kts 136°
2026-05-05 17:03 50.11751 8.69819 40827 ft 489 kts 136°
2026-05-05 17:03 50.07124 8.77594 40825 ft 489 kts 136°
2026-05-05 17:04 50.02395 8.85177 40825 ft 487 kts 140°
2026-05-05 17:04 49.97334 8.92163 40824 ft 486 kts 142°
2026-05-05 17:05 49.92246 8.99076 40824 ft 486 kts 142°
2026-05-05 17:05 49.87199 9.06078 40828 ft 486 kts 141°
2026-05-05 17:06 49.82183 9.13105 40823 ft 486 kts 141°
2026-05-05 17:06 49.77179 9.20111 40821 ft 486 kts 141°
2026-05-05 17:07 49.72164 9.27108 40748 ft 485 kts 141°
2026-05-05 17:07 49.69653 9.30603 40503 ft 483 kts 141°
2026-05-05 17:07 49.67165 9.34060 40253 ft 482 kts 141°
2026-05-05 17:08 49.64709 9.37466 40021 ft 481 kts 141°
2026-05-05 17:08 49.62217 9.41028 39774 ft 482 kts 138°
2026-05-05 17:08 49.59927 9.44819 39405 ft 483 kts 136°
2026-05-05 17:08 49.57708 9.48633 38888 ft 484 kts 135°
2026-05-05 17:09 49.55480 9.52529 38268 ft 483 kts 135°
2026-05-05 17:09 49.53270 9.56421 37553 ft 483 kts 135°
2026-05-05 17:09 49.51059 9.60314 36871 ft 482 kts 135°
2026-05-05 17:09 49.48852 9.64191 36221 ft 482 kts 135°
2026-05-05 17:10 49.46632 9.68077 35588 ft 482 kts 135°
2026-05-05 17:10 49.44415 9.71944 34958 ft 484 kts 135°
2026-05-05 17:10 49.42186 9.75825 34341 ft 483 kts 135°
2026-05-05 17:10 49.39972 9.79673 33725 ft 480 kts 135°
2026-05-05 17:11 49.37761 9.83510 33042 ft 478 kts 135°
2026-05-05 17:11 49.35561 9.87321 32368 ft 475 kts 135°
2026-05-05 17:11 49.33399 9.91053 31717 ft 473 kts 135°
2026-05-05 17:11 49.31218 9.94810 31088 ft 471 kts 135°
2026-05-05 17:12 49.29049 9.98541 30467 ft 468 kts 135°
2026-05-05 17:12 49.26885 10.02258 29851 ft 466 kts 135°
2026-05-05 17:12 49.24725 10.05962 29143 ft 464 kts 135°
2026-05-05 17:12 49.22578 10.09639 28454 ft 461 kts 135°
2026-05-05 17:13 49.20448 10.13281 27785 ft 459 kts 135°
2026-05-05 17:13 49.18326 10.16914 27127 ft 456 kts 135°
2026-05-05 17:13 49.16220 10.20519 26487 ft 453 kts 135°
2026-05-05 17:13 49.14117 10.24108 25858 ft 450 kts 135°
2026-05-05 17:14 49.12048 10.27590 25267 ft 447 kts 136°
2026-05-05 17:14 49.09927 10.31025 24736 ft 442 kts 136°
2026-05-05 17:14 49.07804 10.34398 24192 ft 437 kts 137°
2026-05-05 17:14 49.05704 10.37719 23687 ft 432 kts 137°
2026-05-05 17:15 49.03632 10.41002 23137 ft 427 kts 136°
2026-05-05 17:15 49.01589 10.44248 22544 ft 422 kts 136°
2026-05-05 17:15 48.99563 10.47482 21962 ft 418 kts 136°
2026-05-05 17:15 48.97568 10.50667 21390 ft 413 kts 136°
2026-05-05 17:16 48.95591 10.53815 20831 ft 409 kts 136°
2026-05-05 17:16 48.93633 10.56934 20277 ft 405 kts 136°
2026-05-05 17:16 48.91699 10.60014 19737 ft 401 kts 136°
2026-05-05 17:16 48.89775 10.62971 19218 ft 396 kts 139°
2026-05-05 17:17 48.87789 10.65854 18683 ft 393 kts 139°
2026-05-05 17:17 48.85815 10.68711 18178 ft 389 kts 139°
2026-05-05 17:17 48.83869 10.71542 17588 ft 386 kts 139°
2026-05-05 17:17 48.81940 10.74356 17001 ft 382 kts 139°
2026-05-05 17:18 48.80030 10.77145 16430 ft 379 kts 139°
2026-05-05 17:18 48.78142 10.79904 15866 ft 375 kts 139°
2026-05-05 17:18 48.76268 10.82640 15317 ft 372 kts 139°
2026-05-05 17:18 48.74411 10.85349 14759 ft 368 kts 139°
2026-05-05 17:19 48.72573 10.88029 14237 ft 365 kts 139°
2026-05-05 17:19 48.70777 10.90644 13714 ft 361 kts 139°
2026-05-05 17:19 48.68988 10.93267 13156 ft 358 kts 137°
2026-05-05 17:19 48.67418 10.96193 12549 ft 357 kts 125°
2026-05-05 17:20 48.66237 10.99503 11982 ft 356 kts 118°
2026-05-05 17:20 48.65249 11.02920 11393 ft 354 kts 115°
2026-05-05 17:20 48.64370 11.06385 10958 ft 348 kts 113°
2026-05-05 17:20 48.63565 11.09772 10799 ft 339 kts 112°
2026-05-05 17:21 48.62771 11.13143 10798 ft 340 kts 112°
2026-05-05 17:21 48.61970 11.16501 10804 ft 340 kts 113°
2026-05-05 17:21 48.61150 11.19867 10801 ft 340 kts 113°
2026-05-05 17:22 48.59861 11.26774 10696 ft 343 kts 104°
2026-05-05 17:22 48.59394 11.30288 10248 ft 340 kts 104°
2026-05-05 17:22 48.58932 11.33787 9699 ft 338 kts 104°
2026-05-05 17:22 48.58469 11.37267 9105 ft 336 kts 104°
2026-05-05 17:23 48.58007 11.40674 8520 ft 334 kts 104°
2026-05-05 17:23 48.57530 11.44097 8020 ft 330 kts 104°
2026-05-05 17:23 48.57055 11.47437 7699 ft 320 kts 104°
2026-05-05 17:23 48.56589 11.50663 7391 ft 310 kts 104°
2026-05-05 17:24 48.56127 11.53806 7105 ft 302 kts 104°
2026-05-05 17:24 48.55672 11.56853 6822 ft 294 kts 104°
2026-05-05 17:24 48.55224 11.59835 6519 ft 288 kts 104°
2026-05-05 17:24 48.54929 11.61777 6322 ft 284 kts 104°
2026-05-05 17:25 48.54350 11.65566 5930 ft 278 kts 104°
2026-05-05 17:25 48.54201 11.66533 5827 ft 277 kts 104°
2026-05-05 17:25 48.53471 11.71240 5321 ft 276 kts 104°
2026-05-05 17:25 48.53023 11.74060 5032 ft 275 kts 104°
2026-05-05 17:26 48.52723 11.75920 4838 ft 275 kts 104°
2026-05-05 17:26 48.52265 11.78719 4541 ft 274 kts 104°
2026-05-05 17:26 48.51803 11.81510 4239 ft 273 kts 104°
2026-05-05 17:26 48.51333 11.84294 4027 ft 272 kts 104°
2026-05-05 17:27 48.50862 11.87058 3990 ft 272 kts 104°
2026-05-05 17:27 48.50392 11.89806 3991 ft 273 kts 104°
2026-05-05 17:27 48.49915 11.92594 4000 ft 273 kts 104°
2026-05-05 17:27 48.49441 11.95360 3981 ft 272 kts 104°
2026-05-05 17:28 48.48966 11.98095 3984 ft 273 kts 104°
2026-05-05 17:28 48.48479 12.00891 3993 ft 273 kts 104°
2026-05-05 17:28 48.48002 12.03622 3983 ft 272 kts 104°
2026-05-05 17:28 48.47462 12.06355 3991 ft 273 kts 112°
2026-05-05 17:29 48.46343 12.08688 3987 ft 273 kts 140°
2026-05-05 17:29 48.44699 12.09998 3987 ft 272 kts 165°
2026-05-05 17:29 48.42843 12.10516 3981 ft 272 kts 173°
2026-05-05 17:29 48.40961 12.10725 3986 ft 272 kts 184°
2026-05-05 17:30 48.39197 12.09823 3990 ft 269 kts 217°
2026-05-05 17:30 48.38065 12.07660 3991 ft 265 kts 250°
2026-05-05 17:30 48.37889 12.04950 4000 ft 262 kts 277°
2026-05-05 17:30 48.38068 12.02206 3985 ft 265 kts 273°
2026-05-05 17:31 48.38017 11.99434 3756 ft 265 kts 265°
2026-05-05 17:31 48.37808 11.96737 3355 ft 253 kts 263°
2026-05-05 17:31 48.37597 11.94182 3005 ft 238 kts 265°
2026-05-05 17:31 48.37419 11.91789 2695 ft 223 kts 265°
2026-05-05 17:32 48.37256 11.89580 2435 ft 200 kts 265°
2026-05-05 17:32 48.37103 11.87592 2196 ft 186 kts 264°
2026-05-05 17:32 48.36961 11.85735 1961 ft 171 kts 264°
2026-05-05 17:32 48.36828 11.84041 1764 ft 157 kts 264°
2026-05-05 17:33 48.36706 11.82479 1570 ft 143 kts 264°
2026-05-05 17:33 48.36604 11.81064 1486 ft 123 kts 262°
2026-05-05 17:33 48.36536 11.80160 1480 ft 43 kts 264°
2026-05-05 17:33 48.36493 11.79829 1479 ft 25 kts 243°
2026-05-05 17:34 48.36419 11.79641 1476 ft 9 kts 233°
2026-05-05 17:34 48.36415 11.79632 1478 ft 0 kts 233°
2026-05-05 17:34 48.36372 11.79546 1480 ft 19 kts 234°
2026-05-05 17:34 48.36311 11.79421 1479 ft 14 kts 233°
2026-05-05 17:35 48.36241 11.79312 1478 ft 15 kts 207°
2026-05-05 17:35 48.36155 11.79306 1489 ft 12 kts 175°
2026-05-05 17:35 48.36078 11.79317 1477 ft 12 kts 174°
2026-05-05 17:35 48.36006 11.79330 1481 ft 3 kts 173°
2026-05-05 17:36 48.35925 11.79363 1476 ft 15 kts 141°
2026-05-05 17:36 48.35893 11.79413 1489 ft 3 kts 175°
2026-05-05 17:37 48.35864 11.79403 1485 ft 6 kts 193°
2026-05-05 17:37 48.35818 11.79394 1483 ft 7 kts 180°
2026-05-05 17:37 48.35775 11.79425 1476 ft 7 kts 132°
2026-05-05 17:37 48.35764 11.79488 1481 ft 6 kts 85°
2026-05-05 17:38 48.35781 11.79555 1479 ft 8 kts 69°
2026-05-05 17:38 48.35800 11.79651 1482 ft 11 kts 78°
2026-05-05 17:38 48.35814 11.79793 1485 ft 17 kts 83°
2026-05-05 17:38 48.35826 11.79991 1492 ft 21 kts 92°
2026-05-05 17:39 48.35762 11.80065 1483 ft 13 kts 171°
2026-05-05 17:39 48.35657 11.80095 1487 ft 18 kts 170°
2026-05-05 17:39 48.35516 11.80121 1480 ft 23 kts 174°
2026-05-05 17:39 48.35375 11.80156 1480 ft 23 kts 170°
2026-05-05 17:40 48.35237 11.80178 1484 ft 12 kts 186°
2026-05-05 17:40 48.35228 11.80151 1476 ft 1 kts 288°
2026-05-05 17:40 48.35233 11.80139 1476 ft 3 kts 300°
2026-05-05 17:40 48.35257 11.80084 1476 ft 6 kts 294°
2026-05-05 17:41 48.35259 11.80027 1484 ft 5 kts 265°
2026-05-05 17:41 48.35259 11.80020 1483 ft 0 kts 265°